Today

Time Wind Dr Wind Spd
mph
Wind Gust
mph
Hum In
%
Humid
%
TempI
F
Temp
F
Raw Bar
in
Tot Rain
in
UV Solar
W/sqm
DailyRain
in
HourRain
in
24HrRain
in
RainRate
in
05/09/26 12:01:23 AM 38 0.0 0.0 55 76 72.9 62.6 29.949 7.26 0.0 0 0.00 0.00 0.00 0.00
05/09/26 12:02:36 AM 37 0.0 0.0 55 76 72.9 62.6 29.949 7.26 0.0 0 0.00 0.00 0.00 0.00
05/09/26 12:03:24 AM 37 0.0 0.0 55 76 72.9 62.6 29.947 7.26 0.0 0 0.00 0.00 0.00 0.00
05/09/26 12:04:33 AM 34 0.0 0.0 55 76 72.9 62.5 29.950 7.26 0.0 0 0.00 0.00 0.00 0.00
05/09/26 12:05:25 AM 38 0.0 0.0 55 76 72.9 62.5 29.946 7.26 0.0 0 0.00 0.00 0.00 0.00
05/09/26 12:06:19 AM 36 0.0 0.0 55 76 72.9 62.4 29.951 7.26 0.0 0 0.00 0.00 0.00 0.00
05/09/26 12:07:32 AM 38 0.0 0.0 55 76 72.9 62.3 29.949 7.26 0.0 0 0.00 0.00 0.00 0.00
05/09/26 12:08:20 AM 32 0.0 0.0 55 76 72.9 62.3 29.949 7.26 0.0 0 0.00 0.00 0.00 0.00
05/09/26 12:09:33 AM 38 0.0 0.0 55 77 72.9 62.2 29.947 7.26 0.0 0 0.00 0.00 0.00 0.00
05/09/26 12:10:24 AM 38 0.0 0.0 55 77 72.9 62.2 29.948 7.26 0.0 0 0.00 0.00 0.00 0.00
05/09/26 12:11:34 AM 37 0.0 0.0 55 77 72.9 62.2 29.949 7.26 0.0 0 0.00 0.00 0.00 0.00
05/09/26 12:12:29 AM 36 0.0 0.0 55 77 72.9 62.1 29.949 7.26 0.0 0 0.00 0.00 0.00 0.00
05/09/26 12:13:21 AM 38 0.0 0.0 55 77 72.9 62.1 29.947 7.26 0.0 0 0.00 0.00 0.00 0.00
05/09/26 12:14:28 AM 30 0.0 0.0 55 77 72.9 62.1 29.947 7.26 0.0 0 0.00 0.00 0.00 0.00
05/09/26 12:15:20 AM 37 0.0 0.0 55 77 72.9 62.1 29.948 7.26 0.0 0 0.00 0.00 0.00 0.00
05/09/26 12:16:30 AM 38 0.0 0.0 55 77 72.9 62.0 29.947 7.26 0.0 0 0.00 0.00 0.00 0.00
05/09/26 12:17:21 AM 38 0.0 0.0 55 77 72.8 62.0 29.946 7.26 0.0 0 0.00 0.00 0.00 0.00
05/09/26 12:18:31 AM 38 0.0 0.0 55 77 72.9 62.0 29.948 7.26 0.0 0 0.00 0.00 0.00 0.00
05/09/26 12:19:20 AM 38 0.0 0.0 55 78 72.8 61.9 29.947 7.26 0.0 0 0.00 0.00 0.00 0.00
05/09/26 12:20:30 AM 38 0.0 0.0 55 78 72.8 61.9 29.948 7.26 0.0 0 0.00 0.00 0.00 0.00
05/09/26 12:21:25 AM 37 0.0 0.0 55 78 72.9 61.9 29.946 7.26 0.0 0 0.00 0.00 0.00 0.00
05/09/26 12:22:35 AM 32 0.0 0.0 55 78 72.8 61.8 29.946 7.26 0.0 0 0.00 0.00 0.00 0.00
05/09/26 12:23:27 AM 32 0.0 0.0 55 78 72.8 61.8 29.944 7.26 0.0 0 0.00 0.00 0.00 0.00
05/09/26 12:24:37 AM 35 0.0 0.0 55 78 72.8 61.8 29.947 7.26 0.0 0 0.00 0.00 0.00 0.00
05/09/26 12:25:29 AM 39 0.0 0.0 55 78 72.8 61.7 29.944 7.26 0.0 0 0.00 0.00 0.00 0.00
05/09/26 12:26:21 AM 39 0.0 0.0 55 78 72.8 61.7 29.944 7.26 0.0 0 0.00 0.00 0.00 0.00
05/09/26 12:27:30 AM 38 0.0 0.0 55 78 72.8 61.7 29.945 7.26 0.0 0 0.00 0.00 0.00 0.00
05/09/26 12:28:22 AM 38 0.0 0.0 55 78 72.8 61.6 29.944 7.26 0.0 0 0.00 0.00 0.00 0.00
05/09/26 12:29:29 AM 39 0.0 0.0 55 78 72.8 61.6 29.944 7.26 0.0 0 0.00 0.00 0.00 0.00
05/09/26 12:30:24 AM 32 0.0 0.0 55 78 72.8 61.6 29.945 7.26 0.0 0 0.00 0.00 0.00 0.00
05/09/26 12:31:34 AM 38 0.0 0.0 55 78 72.8 61.5 29.945 7.26 0.0 0 0.00 0.00 0.00 0.00
05/09/26 12:32:26 AM 31 0.0 0.0 55 78 72.8 61.5 29.943 7.26 0.0 0 0.00 0.00 0.00 0.00
05/09/26 12:33:18 AM 37 0.0 0.0 55 78 72.8 61.5 29.945 7.26 0.0 0 0.00 0.00 0.00 0.00
05/09/26 12:34:28 AM 36 0.0 0.0 55 78 72.8 61.4 29.945 7.26 0.0 0 0.00 0.00 0.00 0.00
05/09/26 12:35:16 AM 37 0.0 0.0 55 78 72.8 61.4 29.948 7.26 0.0 0 0.00 0.00 0.00 0.00
05/09/26 12:36:29 AM 34 0.0 0.0 55 79 72.8 61.3 29.943 7.26 0.0 0 0.00 0.00 0.00 0.00
05/09/26 12:37:21 AM 36 0.0 0.0 55 79 72.8 61.3 29.945 7.26 0.0 0 0.00 0.00 0.00 0.00
05/09/26 12:38:31 AM 36 0.0 0.0 55 79 72.8 61.3 29.945 7.26 0.0 0 0.00 0.00 0.00 0.00
05/09/26 12:39:26 AM 38 0.0 0.0 55 79 72.8 61.3 29.948 7.26 0.0 0 0.00 0.00 0.00 0.00
05/09/26 12:40:33 AM 32 0.0 0.0 55 79 72.8 61.2 29.945 7.26 0.0 0 0.00 0.00 0.00 0.00
05/09/26 12:41:25 AM 36 0.0 0.0 55 79 72.8 61.2 29.948 7.26 0.0 0 0.00 0.00 0.00 0.00
05/09/26 12:42:16 AM 38 0.0 0.0 55 79 72.8 61.2 29.945 7.26 0.0 0 0.00 0.00 0.00 0.00
05/09/26 12:43:30 AM 38 0.0 0.0 55 79 72.8 61.1 29.945 7.26 0.0 0 0.00 0.00 0.00 0.00
05/09/26 12:44:21 AM 38 0.0 0.0 55 79 72.8 61.1 29.947 7.26 0.0 0 0.00 0.00 0.00 0.00
05/09/26 12:45:31 AM 38 0.0 0.0 55 80 72.8 61.1 29.943 7.26 0.0 0 0.00 0.00 0.00 0.00
05/09/26 12:46:20 AM 38 0.0 0.0 55 80 72.8 61.1 29.945 7.26 0.0 0 0.00 0.00 0.00 0.00
05/09/26 12:47:33 AM 36 0.0 0.0 55 80 72.7 61.1 29.948 7.26 0.0 0 0.00 0.00 0.00 0.00
05/09/26 12:48:25 AM 34 0.0 0.0 55 80 72.8 61.1 29.944 7.26 0.0 0 0.00 0.00 0.00 0.00
05/09/26 12:49:17 AM 38 0.0 0.0 55 80 72.8 61.0 29.947 7.26 0.0 0 0.00 0.00 0.00 0.00
05/09/26 12:50:30 AM 34 0.0 0.0 55 80 72.8 61.0 29.946 7.26 0.0 0 0.00 0.00 0.00 0.00
05/09/26 12:51:16 AM 32 0.0 0.0 55 80 72.7 61.0 29.944 7.26 0.0 0 0.00 0.00 0.00 0.00
05/09/26 12:52:29 AM 38 0.0 0.0 55 80 72.8 60.9 29.946 7.26 0.0 0 0.00 0.00 0.00 0.00
05/09/26 12:53:20 AM 36 0.0 0.0 55 80 72.7 60.9 29.946 7.26 0.0 0 0.00 0.00 0.00 0.00
05/09/26 12:54:33 AM 32 0.0 0.0 55 80 72.7 60.8 29.946 7.26 0.0 0 0.00 0.00 0.00 0.00
05/09/26 12:55:25 AM 38 0.0 0.0 55 80 72.7 60.8 29.947 7.26 0.0 0 0.00 0.00 0.00 0.00
05/09/26 12:56:32 AM 38 0.0 0.0 55 80 72.7 60.8 29.946 7.26 0.0 0 0.00 0.00 0.00 0.00
05/09/26 12:57:27 AM 39 0.0 0.0 55 80 72.7 60.7 29.946 7.26 0.0 0 0.00 0.00 0.00 0.00
05/09/26 12:58:19 AM 31 0.0 0.0 55 80 72.7 60.7 29.946 7.26 0.0 0 0.00 0.00 0.00 0.00
05/09/26 12:59:29 AM 38 0.0 0.0 55 80 72.7 60.7 29.945 7.26 0.0 0 0.00 0.00 0.00 0.00
05/09/26 1:00:24 AM 35 0.0 0.0 55 80 72.7 60.7 29.947 7.26 0.0 0 0.00 0.00 0.00 0.00
05/09/26 1:01:31 AM 34 0.0 0.0 55 80 72.7 60.6 29.945 7.26 0.0 0 0.00 0.00 0.00 0.00
05/09/26 1:02:22 AM 35 0.0 0.0 55 80 72.6 60.6 29.946 7.26 0.0 0 0.00 0.00 0.00 0.00
05/09/26 1:03:35 AM 36 0.0 0.0 55 81 72.6 60.6 29.943 7.26 0.0 0 0.00 0.00 0.00 0.00
05/09/26 1:04:27 AM 32 0.0 0.0 55 81 72.7 60.6 29.942 7.26 0.0 0 0.00 0.00 0.00 0.00
05/09/26 1:05:22 AM 36 0.0 0.0 55 81 72.6 60.5 29.942 7.26 0.0 0 0.00 0.00 0.00 0.00
05/09/26 1:06:32 AM 36 0.0 0.0 55 80 72.7 60.5 29.943 7.26 0.0 0 0.00 0.00 0.00 0.00
05/09/26 1:07:21 AM 35 0.0 0.0 55 81 72.6 60.5 29.941 7.26 0.0 0 0.00 0.00 0.00 0.00
05/09/26 1:08:31 AM 38 0.0 0.0 55 81 72.6 60.5 29.942 7.26 0.0 0 0.00 0.00 0.00 0.00
05/09/26 1:09:26 AM 37 0.0 0.0 55 81 72.6 60.4 29.942 7.26 0.0 0 0.00 0.00 0.00 0.00
05/09/26 1:10:18 AM 37 0.0 0.0 55 81 72.6 60.4 29.940 7.26 0.0 0 0.00 0.00 0.00 0.00
05/09/26 1:11:31 AM 37 0.0 0.0 55 81 72.6 60.4 29.941 7.26 0.0 0 0.00 0.00 0.00 0.00
05/09/26 1:12:17 AM 36 0.0 0.0 55 81 72.6 60.3 29.940 7.26 0.0 0 0.00 0.00 0.00 0.00
05/09/26 1:13:30 AM 38 0.0 0.0 55 81 72.6 60.3 29.940 7.26 0.0 0 0.00 0.00 0.00 0.00
05/09/26 1:14:21 AM 34 0.0 0.0 55 81 72.6 60.3 29.941 7.26 0.0 0 0.00 0.00 0.00 0.00
05/09/26 1:15:34 AM 37 0.0 0.0 55 81 72.6 60.2 29.940 7.26 0.0 0 0.00 0.00 0.00 0.00
05/09/26 1:16:26 AM 32 0.0 0.0 55 81 72.6 60.2 29.939 7.26 0.0 0 0.00 0.00 0.00 0.00
05/09/26 1:17:18 AM 36 0.0 0.0 55 81 72.6 60.2 29.940 7.26 0.0 0 0.00 0.00 0.00 0.00
05/09/26 1:18:25 AM 38 0.0 0.0 55 81 72.6 60.2 29.939 7.26 0.0 0 0.00 0.00 0.00 0.00
05/09/26 1:19:17 AM 38 0.0 0.0 55 81 72.6 60.2 29.937 7.26 0.0 0 0.00 0.00 0.00 0.00
05/09/26 1:20:27 AM 38 0.0 0.0 55 82 72.6 60.2 29.938 7.26 0.0 0 0.00 0.00 0.00 0.00
05/09/26 1:21:22 AM 38 0.0 0.0 55 82 72.6 60.2 29.934 7.26 0.0 0 0.00 0.00 0.00 0.00
05/09/26 1:22:32 AM 38 0.0 0.0 55 82 72.6 60.1 29.936 7.26 0.0 0 0.00 0.00 0.00 0.00
05/09/26 1:23:20 AM 37 0.0 0.0 55 82 72.6 60.1 29.938 7.26 0.0 0 0.00 0.00 0.00 0.00
05/09/26 1:24:34 AM 32 0.0 0.0 55 82 72.5 60.1 29.935 7.26 0.0 0 0.00 0.00 0.00 0.00
05/09/26 1:25:22 AM 32 0.0 0.0 55 82 72.6 60.0 29.935 7.26 0.0 0 0.00 0.00 0.00 0.00
05/09/26 1:26:17 AM 37 0.0 0.0 55 82 72.5 60.0 29.937 7.26 0.0 0 0.00 0.00 0.00 0.00
05/09/26 1:27:30 AM 38 0.0 0.0 55 82 72.5 60.0 29.935 7.26 0.0 0 0.00 0.00 0.00 0.00
05/09/26 1:28:19 AM 37 0.0 0.0 55 82 72.5 60.0 29.937 7.26 0.0 0 0.00 0.00 0.00 0.00
05/09/26 1:29:29 AM 32 0.0 0.0 55 82 72.5 60.0 29.936 7.26 0.0 0 0.00 0.00 0.00 0.00
05/09/26 1:30:24 AM 34 0.0 0.0 55 82 72.5 60.0 29.938 7.26 0.0 0 0.00 0.00 0.00 0.00
05/09/26 1:31:34 AM 38 0.0 0.0 55 82 72.6 60.0 29.936 7.26 0.0 0 0.00 0.00 0.00 0.00
05/09/26 1:32:29 AM 38 0.0 0.0 55 82 72.5 59.9 29.938 7.26 0.0 0 0.00 0.00 0.00 0.00
05/09/26 1:33:21 AM 30 0.0 0.0 55 82 72.5 59.9 29.936 7.26 0.0 0 0.00 0.00 0.00 0.00
05/09/26 1:34:28 AM 38 0.0 0.0 55 82 72.5 59.9 29.935 7.26 0.0 0 0.00 0.00 0.00 0.00
05/09/26 1:35:19 AM 37 0.0 0.0 55 82 72.5 59.9 29.935 7.26 0.0 0 0.00 0.00 0.00 0.00
05/09/26 1:36:36 AM 37 0.0 0.0 55 82 72.5 59.8 29.935 7.26 0.0 0 0.00 0.00 0.00 0.00
05/09/26 1:37:27 AM 37 0.0 0.0 55 82 72.5 59.8 29.937 7.26 0.0 0 0.00 0.00 0.00 0.00
05/09/26 1:38:16 AM 36 0.0 0.0 55 82 72.5 59.8 29.938 7.26 0.0 0 0.00 0.00 0.00 0.00
05/09/26 1:39:26 AM 37 0.0 0.0 55 82 72.5 59.8 29.936 7.26 0.0 0 0.00 0.00 0.00 0.00
05/09/26 1:40:18 AM 32 0.0 0.0 55 82 72.5 59.7 29.937 7.26 0.0 0 0.00 0.00 0.00 0.00
05/09/26 1:41:31 AM 38 0.0 0.0 55 82 72.5 59.7 29.935 7.26 0.0 0 0.00 0.00 0.00 0.00
05/09/26 1:42:23 AM 36 0.0 0.0 55 82 72.5 59.6 29.935 7.26 0.0 0 0.00 0.00 0.00 0.00
05/09/26 1:43:36 AM 36 0.0 0.0 55 82 72.4 59.6 29.935 7.26 0.0 0 0.00 0.00 0.00 0.00
05/09/26 1:44:22 AM 38 0.0 0.0 55 82 72.4 59.6 29.936 7.26 0.0 0 0.00 0.00 0.00 0.00
05/09/26 1:45:35 AM 38 0.0 0.0 55 82 72.5 59.6 29.935 7.26 0.0 0 0.00 0.00 0.00 0.00
05/09/26 1:46:27 AM 37 0.0 0.0 55 82 72.5 59.6 29.935 7.26 0.0 0 0.00 0.00 0.00 0.00
05/09/26 1:47:19 AM 37 0.0 0.0 55 82 72.4 59.6 29.934 7.26 0.0 0 0.00 0.00 0.00 0.00
05/09/26 1:48:29 AM 37 0.0 0.0 55 82 72.4 59.6 29.935 7.26 0.0 0 0.00 0.00 0.00 0.00
05/09/26 1:49:24 AM 37 0.0 0.0 55 82 72.5 59.5 29.935 7.26 0.0 0 0.00 0.00 0.00 0.00
05/09/26 1:50:31 AM 36 0.0 0.0 55 82 72.4 59.5 29.934 7.26 0.0 0 0.00 0.00 0.00 0.00
05/09/26 1:51:22 AM 37 0.0 0.0 55 82 72.4 59.5 29.933 7.26 0.0 0 0.00 0.00 0.00 0.00
05/09/26 1:52:32 AM 37 0.0 0.0 55 82 72.4 59.5 29.933 7.26 0.0 0 0.00 0.00 0.00 0.00
05/09/26 1:53:25 AM 38 0.0 0.0 55 82 72.4 59.5 29.934 7.26 0.0 0 0.00 0.00 0.00 0.00
05/09/26 1:54:19 AM 34 0.0 0.0 55 82 72.4 59.5 29.932 7.26 0.0 0 0.00 0.00 0.00 0.00
05/09/26 1:55:26 AM 35 0.0 0.0 55 82 72.4 59.4 29.930 7.26 0.0 0 0.00 0.00 0.00 0.00
05/09/26 1:56:18 AM 38 0.0 0.0 55 82 72.4 59.4 29.932 7.26 0.0 0 0.00 0.00 0.00 0.00
05/09/26 1:57:31 AM 35 0.0 0.0 55 82 72.4 59.4 29.932 7.26 0.0 0 0.00 0.00 0.00 0.00
05/09/26 1:58:20 AM 34 0.0 0.0 55 82 72.4 59.4 29.934 7.26 0.0 0 0.00 0.00 0.00 0.00
05/09/26 1:59:33 AM 38 0.0 0.0 55 82 72.4 59.3 29.933 7.26 0.0 0 0.00 0.00 0.00 0.00
05/09/26 2:00:22 AM 38 0.0 0.0 55 82 72.4 59.3 29.932 7.26 0.0 0 0.00 0.00 0.00 0.00
05/09/26 2:01:32 AM 37 0.0 0.0 55 83 72.3 59.3 29.931 7.26 0.0 0 0.00 0.00 0.00 0.00
05/09/26 2:02:24 AM 38 0.0 0.0 55 83 72.3 59.3 29.932 7.26 0.0 0 0.00 0.00 0.00 0.00
05/09/26 2:03:16 AM 31 0.0 0.0 55 83 72.4 59.3 29.932 7.26 0.0 0 0.00 0.00 0.00 0.00
05/09/26 2:04:29 AM 36 0.0 0.0 55 83 72.3 59.3 29.931 7.26 0.0 0 0.00 0.00 0.00 0.00
05/09/26 2:05:18 AM 37 0.0 0.0 55 83 72.3 59.2 29.932 7.26 0.0 0 0.00 0.00 0.00 0.00
05/09/26 2:06:28 AM 35 0.0 0.0 55 83 72.3 59.2 29.932 7.26 0.0 0 0.00 0.00 0.00 0.00
05/09/26 2:07:20 AM 38 0.0 0.0 55 83 72.3 59.2 29.932 7.26 0.0 0 0.00 0.00 0.00 0.00
05/09/26 2:08:33 AM 35 0.0 0.0 55 83 72.3 59.1 29.930 7.26 0.0 0 0.00 0.00 0.00 0.00
05/09/26 2:09:25 AM 38 0.0 0.0 55 83 72.3 59.1 29.931 7.26 0.0 0 0.00 0.00 0.00 0.00
05/09/26 2:10:17 AM 37 0.0 0.0 55 83 72.3 59.1 29.931 7.26 0.0 0 0.00 0.00 0.00 0.00
05/09/26 2:11:27 AM 38 0.0 0.0 55 83 72.3 59.1 29.929 7.26 0.0 0 0.00 0.00 0.00 0.00
05/09/26 2:12:19 AM 38 0.0 0.0 55 83 72.3 59.1 29.929 7.26 0.0 0 0.00 0.00 0.00 0.00
05/09/26 2:13:32 AM 38 0.0 0.0 55 83 72.3 59.0 29.928 7.26 0.0 0 0.00 0.00 0.00 0.00
05/09/26 2:14:24 AM 38 0.0 0.0 55 83 72.2 59.0 29.930 7.26 0.0 0 0.00 0.00 0.00 0.00
05/09/26 2:15:37 AM 32 0.0 0.0 55 83 72.3 59.0 29.932 7.26 0.0 0 0.00 0.00 0.00 0.00
05/09/26 2:16:23 AM 30 0.0 0.0 55 83 72.2 59.0 29.930 7.26 0.0 0 0.00 0.00 0.00 0.00
05/09/26 2:17:36 AM 38 0.0 0.0 55 83 72.2 58.9 29.928 7.26 0.0 0 0.00 0.00 0.00 0.00
05/09/26 2:18:28 AM 37 0.0 0.0 55 83 72.2 58.9 29.928 7.26 0.0 0 0.00 0.00 0.00 0.00
05/09/26 2:19:20 AM 38 0.0 0.0 55 83 72.2 58.9 29.930 7.26 0.0 0 0.00 0.00 0.00 0.00
05/09/26 2:20:33 AM 38 0.0 0.0 55 83 72.2 58.8 29.927 7.26 0.0 0 0.00 0.00 0.00 0.00
05/09/26 2:21:22 AM 38 0.0 0.0 55 83 72.2 58.8 29.929 7.26 0.0 0 0.00 0.00 0.00 0.00
05/09/26 2:22:32 AM 35 0.0 0.0 55 83 72.2 58.8 29.926 7.26 0.0 0 0.00 0.00 0.00 0.00
05/09/26 2:23:24 AM 32 0.0 0.0 55 83 72.1 58.7 29.928 7.26 0.0 0 0.00 0.00 0.00 0.00
05/09/26 2:24:34 AM 34 0.0 0.0 55 83 72.1 58.7 29.930 7.26 0.0 0 0.00 0.00 0.00 0.00
05/09/26 2:25:26 AM 38 0.0 0.0 55 83 72.1 58.6 29.929 7.26 0.0 0 0.00 0.00 0.00 0.00
05/09/26 2:26:18 AM 38 0.0 0.0 55 83 72.2 58.6 29.929 7.26 0.0 0 0.00 0.00 0.00 0.00
05/09/26 2:27:28 AM 32 0.0 0.0 55 83 72.1 58.6 29.929 7.26 0.0 0 0.00 0.00 0.00 0.00
05/09/26 2:28:20 AM 38 0.0 0.0 55 83 72.1 58.5 29.927 7.26 0.0 0 0.00 0.00 0.00 0.00
05/09/26 2:29:30 AM 37 0.0 0.0 55 83 72.1 58.5 29.927 7.26 0.0 0 0.00 0.00 0.00 0.00
05/09/26 2:30:25 AM 34 0.0 0.0 55 83 72.1 58.4 29.927 7.26 0.0 0 0.00 0.00 0.00 0.00
05/09/26 2:31:35 AM 37 0.0 0.0 55 83 72.1 58.4 29.924 7.26 0.0 0 0.00 0.00 0.00 0.00
05/09/26 2:32:24 AM 38 0.0 0.0 55 83 72.1 58.3 29.927 7.26 0.0 0 0.00 0.00 0.00 0.00
05/09/26 2:33:34 AM 34 0.0 0.0 55 84 72.1 58.3 29.924 7.26 0.0 0 0.00 0.00 0.00 0.00
05/09/26 2:34:28 AM 38 0.0 0.0 55 84 72.1 58.3 29.924 7.26 0.0 0 0.00 0.00 0.00 0.00
05/09/26 2:35:20 AM 32 0.0 0.0 55 84 72.1 58.3 29.924 7.26 0.0 0 0.00 0.00 0.00 0.00
05/09/26 2:36:33 AM 34 0.0 0.0 55 84 72.1 58.3 29.922 7.26 0.0 0 0.00 0.00 0.00 0.00
05/09/26 2:37:25 AM 36 0.0 0.0 55 84 72.0 58.2 29.924 7.26 0.0 0 0.00 0.00 0.00 0.00
05/09/26 2:38:32 AM 36 0.0 0.0 55 84 72.0 58.2 29.924 7.26 0.0 0 0.00 0.00 0.00 0.00
05/09/26 2:39:24 AM 36 0.0 0.0 55 84 72.0 58.2 29.924 7.26 0.0 0 0.00 0.00 0.00 0.00
05/09/26 2:40:16 AM 38 0.0 0.0 55 84 72.1 58.2 29.922 7.26 0.0 0 0.00 0.00 0.00 0.00
05/09/26 2:41:29 AM 38 0.0 0.0 55 84 72.0 58.2 29.919 7.26 0.0 0 0.00 0.00 0.00 0.00
05/09/26 2:42:21 AM 35 0.0 0.0 55 84 72.0 58.2 29.921 7.26 0.0 0 0.00 0.00 0.00 0.00
05/09/26 2:43:28 AM 38 0.0 0.0 55 84 72.0 58.2 29.921 7.26 0.0 0 0.00 0.00 0.00 0.00
05/09/26 2:44:20 AM 38 0.0 0.0 55 84 72.0 58.2 29.918 7.26 0.0 0 0.00 0.00 0.00 0.00
05/09/26 2:45:33 AM 34 0.0 0.0 55 84 72.0 58.2 29.922 7.26 0.0 0 0.00 0.00 0.00 0.00
05/09/26 2:46:22 AM 37 0.0 0.0 55 84 72.0 58.2 29.919 7.26 0.0 0 0.00 0.00 0.00 0.00
05/09/26 2:47:35 AM 37 0.0 0.0 55 84 72.0 58.2 29.920 7.26 0.0 0 0.00 0.00 0.00 0.00
05/09/26 2:48:24 AM 37 0.0 0.0 55 84 72.0 58.2 29.919 7.26 0.0 0 0.00 0.00 0.00 0.00
05/09/26 2:49:37 AM 37 0.0 0.0 55 84 72.0 58.2 29.917 7.26 0.0 0 0.00 0.00 0.00 0.00
05/09/26 2:50:29 AM 35 0.0 0.0 55 84 71.9 58.2 29.918 7.26 0.0 0 0.00 0.00 0.00 0.00
05/09/26 2:51:21 AM 36 0.0 0.0 55 84 71.9 58.1 29.918 7.26 0.0 0 0.00 0.00 0.00 0.00
05/09/26 2:52:34 AM 38 0.0 0.0 55 84 71.9 58.2 29.919 7.26 0.0 0 0.00 0.00 0.00 0.00
05/09/26 2:53:26 AM 37 0.0 0.0 55 84 71.9 58.2 29.917 7.26 0.0 0 0.00 0.00 0.00 0.00
05/09/26 2:54:36 AM 38 0.0 0.0 55 84 71.9 58.1 29.919 7.26 0.0 0 0.00 0.00 0.00 0.00
05/09/26 2:55:24 AM 32 0.0 0.0 55 84 71.9 58.1 29.918 7.26 0.0 0 0.00 0.00 0.00 0.00
05/09/26 2:56:16 AM 38 0.0 0.0 55 84 71.9 58.1 29.917 7.26 0.0 0 0.00 0.00 0.00 0.00
05/09/26 2:57:29 AM 35 0.0 0.0 55 84 71.9 58.0 29.919 7.26 0.0 0 0.00 0.00 0.00 0.00
05/09/26 2:58:21 AM 38 0.0 0.0 55 84 71.9 58.1 29.916 7.26 0.0 0 0.00 0.00 0.00 0.00
05/09/26 2:59:28 AM 36 0.0 0.0 55 85 71.9 58.1 29.919 7.26 0.0 0 0.00 0.00 0.00 0.00
05/09/26 3:00:41 AM 37 0.0 0.0 55 85 71.9 58.1 29.917 7.26 0.0 0 0.00 0.00 0.00 0.00
05/09/26 3:01:33 AM 37 0.0 0.0 55 85 71.9 58.1 29.918 7.26 0.0 0 0.00 0.00 0.00 0.00
05/09/26 3:02:25 AM 34 0.0 0.0 55 85 71.9 58.1 29.918 7.26 0.0 0 0.00 0.00 0.00 0.00
05/09/26 3:03:17 AM 38 0.0 0.0 55 85 71.9 58.1 29.917 7.26 0.0 0 0.00 0.00 0.00 0.00
05/09/26 3:04:30 AM 35 0.0 0.0 55 85 71.9 58.1 29.918 7.26 0.0 0 0.00 0.00 0.00 0.00
05/09/26 3:05:16 AM 38 0.0 0.0 55 85 71.9 58.0 29.917 7.26 0.0 0 0.00 0.00 0.00 0.00
05/09/26 3:06:29 AM 38 0.0 0.0 55 85 71.8 58.0 29.917 7.26 0.0 0 0.00 0.00 0.00 0.00
05/09/26 3:07:21 AM 38 0.0 0.0 55 85 71.9 58.0 29.917 7.26 0.0 0 0.00 0.00 0.00 0.00
05/09/26 3:08:34 AM 35 0.0 0.0 55 85 71.9 58.0 29.915 7.26 0.0 0 0.00 0.00 0.00 0.00
05/09/26 3:09:26 AM 40 0.0 0.0 55 85 71.9 58.0 29.917 7.26 0.0 0 0.00 0.00 0.00 0.00
05/09/26 3:10:33 AM 32 0.0 0.0 55 85 71.9 58.0 29.916 7.26 0.0 0 0.00 0.00 0.00 0.00
05/09/26 3:11:25 AM 37 0.0 0.0 55 85 71.9 58.0 29.918 7.26 0.0 0 0.00 0.00 0.00 0.00
05/09/26 3:12:17 AM 37 0.0 0.0 55 85 71.9 57.9 29.915 7.26 0.0 0 0.00 0.00 0.00 0.00
05/09/26 3:13:30 AM 38 0.0 0.0 55 85 71.9 57.9 29.917 7.26 0.0 0 0.00 0.00 0.00 0.00
05/09/26 3:14:22 AM 38 0.0 0.0 55 85 71.8 57.9 29.918 7.26 0.0 0 0.00 0.00 0.00 0.00
05/09/26 3:15:32 AM 38 0.0 0.0 55 85 71.8 57.8 29.917 7.26 0.0 0 0.00 0.00 0.00 0.00
05/09/26 3:16:21 AM 34 0.0 0.0 55 85 71.8 57.8 29.919 7.26 0.0 0 0.00 0.00 0.00 0.00
05/09/26 3:17:34 AM 37 0.0 0.0 55 85 71.8 57.8 29.916 7.26 0.0 0 0.00 0.00 0.00 0.00
05/09/26 3:18:26 AM 38 0.0 0.0 55 85 71.8 57.8 29.917 7.26 0.0 0 0.00 0.00 0.00 0.00
05/09/26 3:19:18 AM 34 0.0 0.0 55 85 71.9 57.7 29.918 7.26 0.0 0 0.00 0.00 0.00 0.00
05/09/26 3:20:31 AM 35 0.0 0.0 55 85 71.8 57.7 29.918 7.26 0.0 0 0.00 0.00 0.00 0.00
05/09/26 3:21:20 AM 38 0.0 0.0 55 85 71.8 57.7 29.916 7.26 0.0 0 0.00 0.00 0.00 0.00
05/09/26 3:22:30 AM 32 0.0 0.0 55 85 71.9 57.6 29.916 7.26 0.0 0 0.00 0.00 0.00 0.00
05/09/26 3:23:22 AM 36 0.0 0.0 55 85 71.8 57.6 29.916 7.26 0.0 0 0.00 0.00 0.00 0.00
05/09/26 3:24:35 AM 38 0.0 0.0 55 85 71.8 57.6 29.916 7.26 0.0 0 0.00 0.00 0.00 0.00
05/09/26 3:25:27 AM 36 0.0 0.0 55 85 71.8 57.6 29.913 7.26 0.0 0 0.00 0.00 0.00 0.00
05/09/26 3:26:34 AM 37 0.0 0.0 55 85 71.8 57.5 29.916 7.26 0.0 0 0.00 0.00 0.00 0.00
05/09/26 3:27:29 AM 35 0.0 0.0 55 85 71.8 57.5 29.913 7.26 0.0 0 0.00 0.00 0.00 0.00
05/09/26 3:28:18 AM 38 0.0 0.0 55 85 71.8 57.5 29.913 7.26 0.0 0 0.00 0.00 0.00 0.00
05/09/26 3:29:31 AM 37 0.0 0.0 55 85 71.8 57.4 29.915 7.26 0.0 0 0.00 0.00 0.00 0.00
05/09/26 3:30:23 AM 38 0.0 0.0 55 85 71.8 57.4 29.915 7.26 0.0 0 0.00 0.00 0.00 0.00
05/09/26 3:31:30 AM 32 0.0 0.0 55 85 71.8 57.3 29.916 7.26 0.0 0 0.00 0.00 0.00 0.00
05/09/26 3:32:22 AM 36 0.0 0.0 55 85 71.8 57.3 29.913 7.26 0.0 0 0.00 0.00 0.00 0.00
05/09/26 3:33:35 AM 36 0.0 0.0 55 85 71.8 57.3 29.915 7.26 0.0 0 0.00 0.00 0.00 0.00
05/09/26 3:34:27 AM 32 0.0 0.0 55 85 71.7 57.2 29.913 7.26 0.0 0 0.00 0.00 0.00 0.00
05/09/26 3:35:19 AM 36 0.0 0.0 55 85 71.8 57.2 29.911 7.26 0.0 0 0.00 0.00 0.00 0.00
05/09/26 3:36:32 AM 31 0.0 0.0 55 85 71.7 57.2 29.911 7.26 0.0 0 0.00 0.00 0.00 0.00
05/09/26 3:37:21 AM 34 0.0 0.0 55 85 71.7 57.2 29.912 7.26 0.0 0 0.00 0.00 0.00 0.00
05/09/26 3:38:31 AM 38 0.0 0.0 55 85 71.7 57.1 29.911 7.26 0.0 0 0.00 0.00 0.00 0.00
05/09/26 3:39:23 AM 34 0.0 0.0 55 85 71.7 57.1 29.911 7.26 0.0 0 0.00 0.00 0.00 0.00
05/09/26 3:40:33 AM 38 0.0 0.0 55 85 71.7 57.1 29.912 7.26 0.0 0 0.00 0.00 0.00 0.00
05/09/26 3:41:28 AM 36 0.0 0.0 55 85 71.7 57.1 29.908 7.26 0.0 0 0.00 0.00 0.00 0.00
05/09/26 3:42:35 AM 36 0.0 0.0 55 85 71.7 57.0 29.913 7.26 0.0 0 0.00 0.00 0.00 0.00
05/09/26 3:43:27 AM 34 0.0 0.0 55 85 71.7 57.1 29.912 7.26 0.0 0 0.00 0.00 0.00 0.00
05/09/26 3:44:16 AM 35 0.0 0.0 55 85 71.7 57.0 29.912 7.26 0.0 0 0.00 0.00 0.00 0.00
05/09/26 3:45:29 AM 36 0.0 0.0 55 85 71.7 57.0 29.913 7.26 0.0 0 0.00 0.00 0.00 0.00
05/09/26 3:46:21 AM 31 0.0 0.0 55 85 71.7 56.9 29.910 7.26 0.0 0 0.00 0.00 0.00 0.00
05/09/26 3:47:31 AM 35 0.0 0.0 55 85 71.7 56.9 29.912 7.26 0.0 0 0.00 0.00 0.00 0.00
05/09/26 3:48:20 AM 37 0.0 0.0 55 85 71.7 56.9 29.911 7.26 0.0 0 0.00 0.00 0.00 0.00
05/09/26 3:49:33 AM 38 0.0 0.0 55 85 71.7 56.9 29.912 7.26 0.0 0 0.00 0.00 0.00 0.00
05/09/26 3:50:25 AM 38 0.0 0.0 55 85 71.7 56.9 29.910 7.26 0.0 0 0.00 0.00 0.00 0.00
05/09/26 3:51:20 AM 37 0.0 0.0 55 85 71.7 56.9 29.912 7.26 0.0 0 0.00 0.00 0.00 0.00
05/09/26 3:52:30 AM 37 0.0 0.0 55 86 71.7 56.9 29.911 7.26 0.0 0 0.00 0.00 0.00 0.00
05/09/26 3:53:19 AM 37 0.0 0.0 55 86 71.7 56.9 29.910 7.26 0.0 0 0.00 0.00 0.00 0.00
05/09/26 3:54:32 AM 34 0.0 0.0 55 86 71.7 56.9 29.912 7.26 0.0 0 0.00 0.00 0.00 0.00
05/09/26 3:55:21 AM 32 0.0 0.0 55 86 71.7 57.0 29.912 7.26 0.0 0 0.00 0.00 0.00 0.00
05/09/26 3:56:31 AM 37 0.0 0.0 55 86 71.7 57.0 29.911 7.26 0.0 0 0.00 0.00 0.00 0.00
05/09/26 3:57:26 AM 36 0.0 0.0 55 86 71.7 57.0 29.911 7.26 0.0 0 0.00 0.00 0.00 0.00
05/09/26 3:58:30 AM 34 0.0 0.0 55 86 71.7 57.0 29.911 7.26 0.0 0 0.00 0.00 0.00 0.00
05/09/26 3:59:22 AM 36 0.0 0.0 55 86 71.6 57.0 29.911 7.26 0.0 0 0.00 0.00 0.00 0.00
05/09/26 4:00:17 AM 38 0.0 0.0 55 86 71.7 57.1 29.912 7.26 0.0 0 0.00 0.00 0.00 0.00
05/09/26 4:01:30 AM 38 0.0 0.0 55 86 71.7 57.1 29.912 7.26 0.0 0 0.00 0.00 0.00 0.00
05/09/26 4:02:22 AM 37 0.0 0.0 55 86 71.7 57.1 29.912 7.26 0.0 0 0.00 0.00 0.00 0.00
05/09/26 4:03:29 AM 36 0.0 0.0 55 86 71.7 57.1 29.914 7.26 0.0 0 0.00 0.00 0.00 0.00
05/09/26 4:04:21 AM 38 0.0 0.0 55 86 71.7 57.1 29.911 7.26 0.0 0 0.00 0.00 0.00 0.00
05/09/26 4:05:34 AM 32 0.0 0.0 55 86 71.7 57.1 29.911 7.26 0.0 0 0.00 0.00 0.00 0.00
05/09/26 4:06:23 AM 36 0.0 0.0 55 86 71.7 57.1 29.911 7.26 0.0 0 0.00 0.00 0.00 0.00
05/09/26 4:07:36 AM 38 0.0 0.0 55 86 71.7 57.1 29.911 7.26 0.0 0 0.00 0.00 0.00 0.00
05/09/26 4:08:31 AM 37 0.0 0.0 55 86 71.7 57.1 29.910 7.26 0.0 0 0.00 0.00 0.00 0.00
05/09/26 4:09:20 AM 35 0.0 0.0 55 86 71.7 57.1 29.912 7.26 0.0 0 0.00 0.00 0.00 0.00
05/09/26 4:10:33 AM 32 0.0 0.0 55 86 71.7 57.1 29.911 7.26 0.0 0 0.00 0.00 0.00 0.00
05/09/26 4:11:25 AM 35 0.0 0.0 55 86 71.7 57.1 29.910 7.26 0.0 0 0.00 0.00 0.00 0.00
05/09/26 4:12:17 AM 37 0.0 0.0 55 86 71.7 57.0 29.908 7.26 0.0 0 0.00 0.00 0.00 0.00
05/09/26 4:13:30 AM 38 0.0 0.0 55 86 71.7 57.0 29.911 7.26 0.0 0 0.00 0.00 0.00 0.00
05/09/26 4:14:19 AM 32 0.0 0.0 55 86 71.7 57.0 29.908 7.26 0.0 0 0.00 0.00 0.00 0.00
05/09/26 4:15:53 AM 34 0.0 0.0 55 86 71.7 57.0 29.911 7.26 0.0 0 0.00 0.00 0.00 0.00
05/09/26 4:16:21 AM 34 0.0 0.0 55 86 71.6 57.0 29.911 7.26 0.0 0 0.00 0.00 0.00 0.00
05/09/26 4:17:34 AM 37 0.0 0.0 55 86 71.7 56.9 29.912 7.26 0.0 0 0.00 0.00 0.00 0.00
05/09/26 4:18:29 AM 36 0.0 0.0 55 86 71.7 56.9 29.912 7.26 0.0 0 0.00 0.00 0.00 0.00
05/09/26 4:19:18 AM 38 0.0 0.0 55 86 71.7 56.9 29.910 7.26 0.0 0 0.00 0.00 0.00 0.00
05/09/26 4:20:28 AM 36 0.0 0.0 55 86 71.6 56.9 29.912 7.26 0.0 0 0.00 0.00 0.00 0.00
05/09/26 4:21:20 AM 35 0.0 0.0 55 86 71.6 56.9 29.911 7.26 0.0 0 0.00 0.00 0.00 0.00
05/09/26 4:22:33 AM 32 0.0 0.0 55 86 71.6 56.9 29.908 7.26 0.0 0 0.00 0.00 0.00 0.00
05/09/26 4:23:25 AM 38 0.0 0.0 55 86 71.6 56.9 29.908 7.26 0.0 0 0.00 0.00 0.00 0.00
05/09/26 4:24:17 AM 38 0.0 0.0 55 86 71.6 56.9 29.906 7.26 0.0 0 0.00 0.00 0.00 0.00
05/09/26 4:25:24 AM 38 0.0 0.0 55 86 71.6 56.8 29.910 7.26 0.0 0 0.00 0.00 0.00 0.00
05/09/26 4:26:19 AM 38 0.0 0.0 55 86 71.6 56.8 29.907 7.26 0.0 0 0.00 0.00 0.00 0.00
05/09/26 4:27:29 AM 37 0.0 0.0 55 86 71.6 56.8 29.906 7.26 0.0 0 0.00 0.00 0.00 0.00
05/09/26 4:28:21 AM 34 0.0 0.0 55 86 71.7 56.8 29.907 7.26 0.0 0 0.00 0.00 0.00 0.00
05/09/26 4:29:34 AM 37 0.0 0.0 55 86 71.6 56.7 29.907 7.26 0.0 0 0.00 0.00 0.00 0.00
05/09/26 4:30:47 AM 36 0.0 0.0 55 86 71.6 56.7 29.906 7.26 0.0 0 0.00 0.00 0.00 0.00
05/09/26 4:31:33 AM 37 0.0 0.0 55 86 71.6 56.7 29.906 7.26 0.0 0 0.00 0.00 0.00 0.00
05/09/26 4:32:25 AM 37 0.0 0.0 55 86 71.6 56.7 29.905 7.26 0.0 0 0.00 0.00 0.00 0.00
05/09/26 4:33:17 AM 35 0.0 0.0 55 86 71.6 56.7 29.905 7.26 0.0 0 0.00 0.00 0.00 0.00
05/09/26 4:34:27 AM 32 0.0 0.0 55 86 71.6 56.6 29.906 7.26 0.0 0 0.00 0.00 0.00 0.00
05/09/26 4:35:19 AM 35 0.0 0.0 55 86 71.6 56.6 29.907 7.26 0.0 0 0.00 0.00 0.00 0.00
05/09/26 4:36:26 AM 36 0.0 0.0 55 86 71.6 56.6 29.905 7.26 0.0 0 0.00 0.00 0.00 0.00
05/09/26 4:37:21 AM 38 0.0 0.0 55 86 71.6 56.6 29.907 7.26 0.0 0 0.00 0.00 0.00 0.00
05/09/26 4:38:31 AM 38 0.0 0.0 55 86 71.5 56.6 29.907 7.26 0.0 0 0.00 0.00 0.00 0.00
05/09/26 4:39:23 AM 34 0.0 0.0 55 87 71.6 56.6 29.906 7.26 0.0 0 0.00 0.00 0.00 0.00
05/09/26 4:40:36 AM 32 0.0 0.0 55 87 71.5 56.6 29.906 7.26 0.0 0 0.00 0.00 0.00 0.00
05/09/26 4:41:28 AM 38 0.0 0.0 55 87 71.6 56.6 29.907 7.26 0.0 0 0.00 0.00 0.00 0.00
05/09/26 4:42:35 AM 38 0.0 0.0 55 87 71.5 56.6 29.908 7.26 0.0 0 0.00 0.00 0.00 0.00
05/09/26 4:43:27 AM 30 0.0 0.0 55 87 71.6 56.6 29.908 7.26 0.0 0 0.00 0.00 0.00 0.00
05/09/26 4:44:19 AM 38 0.0 0.0 55 87 71.6 56.6 29.906 7.26 0.0 0 0.00 0.00 0.00 0.00
05/09/26 4:45:32 AM 32 0.0 0.0 55 87 71.5 56.5 29.906 7.26 0.0 0 0.00 0.00 0.00 0.00
05/09/26 4:46:24 AM 38 0.0 0.0 55 87 71.6 56.6 29.907 7.26 0.0 0 0.00 0.00 0.00 0.00
05/09/26 4:47:31 AM 38 0.0 0.0 55 87 71.5 56.6 29.905 7.26 0.0 0 0.00 0.00 0.00 0.00
05/09/26 4:48:23 AM 36 0.0 0.0 55 87 71.5 56.6 29.905 7.26 0.0 0 0.00 0.00 0.00 0.00
05/09/26 4:49:36 AM 38 0.0 0.0 55 87 71.5 56.6 29.905 7.26 0.0 0 0.00 0.00 0.00 0.00
05/09/26 4:50:28 AM 38 0.0 0.0 55 87 71.5 56.5 29.907 7.26 0.0 0 0.00 0.00 0.00 0.00
05/09/26 4:51:20 AM 38 0.0 0.0 55 87 71.5 56.5 29.905 7.26 0.0 0 0.00 0.00 0.00 0.00
05/09/26 4:52:27 AM 38 0.0 0.0 55 87 71.5 56.5 29.908 7.26 0.0 0 0.00 0.00 0.00 0.00
05/09/26 4:53:19 AM 31 0.0 0.0 55 87 71.5 56.5 29.908 7.26 0.0 0 0.00 0.00 0.00 0.00
05/09/26 4:54:32 AM 38 0.0 0.0 55 87 71.5 56.5 29.904 7.26 0.0 0 0.00 0.00 0.00 0.00
05/09/26 4:55:27 AM 38 0.0 0.0 55 87 71.5 56.5 29.904 7.26 0.0 0 0.00 0.00 0.00 0.00
05/09/26 4:56:16 AM 38 0.0 0.0 55 87 71.5 56.5 29.904 7.26 0.0 0 0.00 0.00 0.00 0.00
05/09/26 4:57:29 AM 32 0.0 0.0 55 87 71.5 56.5 29.904 7.26 0.0 0 0.00 0.00 0.00 0.00
05/09/26 4:58:19 AM 37 0.0 0.0 55 87 71.5 56.5 29.907 7.26 0.0 0 0.00 0.00 0.00 0.00
05/09/26 4:59:29 AM 38 0.0 0.0 55 87 71.5 56.5 29.905 7.26 0.0 0 0.00 0.00 0.00 0.00
05/09/26 5:00:45 AM 35 0.0 0.0 55 87 71.5 56.4 29.905 7.26 0.0 0 0.00 0.00 0.00 0.00
05/09/26 5:01:37 AM 38 0.0 0.0 55 87 71.5 56.4 29.905 7.26 0.0 0 0.00 0.00 0.00 0.00
05/09/26 5:02:29 AM 37 0.0 0.0 55 87 71.5 56.4 29.904 7.26 0.0 0 0.00 0.00 0.00 0.00
05/09/26 5:03:21 AM 34 0.0 0.0 55 87 71.5 56.3 29.906 7.26 0.0 0 0.00 0.00 0.00 0.00
05/09/26 5:04:28 AM 32 0.0 0.0 55 87 71.4 56.2 29.906 7.26 0.0 0 0.00 0.00 0.00 0.00
05/09/26 5:05:20 AM 34 0.0 0.0 55 87 71.3 56.2 29.905 7.26 0.0 0 0.00 0.00 0.00 0.00
05/09/26 5:06:33 AM 36 0.0 0.0 55 87 71.3 56.2 29.906 7.26 0.0 0 0.00 0.00 0.00 0.00
05/09/26 5:07:25 AM 38 0.0 0.0 55 87 71.2 56.2 29.907 7.26 0.0 0 0.00 0.00 0.00 0.00
05/09/26 5:08:17 AM 37 0.0 0.0 55 87 71.0 56.2 29.906 7.26 0.0 0 0.00 0.00 0.00 0.00
05/09/26 5:09:24 AM 37 0.0 0.0 55 87 70.9 56.1 29.907 7.26 0.0 0 0.00 0.00 0.00 0.00
05/09/26 5:10:16 AM 35 0.0 0.0 55 87 70.8 56.2 29.906 7.26 0.0 0 0.00 0.00 0.00 0.00
05/09/26 5:11:26 AM 38 0.0 0.0 55 87 70.7 56.1 29.905 7.26 0.0 0 0.00 0.00 0.00 0.00
05/09/26 5:12:18 AM 36 0.0 0.0 55 87 70.5 56.2 29.909 7.26 0.0 0 0.00 0.00 0.00 0.00
05/09/26 5:13:29 AM 36 0.0 0.0 55 87 70.4 56.1 29.906 7.26 0.0 0 0.00 0.00 0.00 0.00
05/09/26 5:14:18 AM 38 0.0 0.0 55 87 70.3 56.2 29.905 7.26 0.0 0 0.00 0.00 0.00 0.00
05/09/26 5:15:34 AM 34 0.0 0.0 55 87 70.2 56.2 29.904 7.26 0.0 0 0.00 0.00 0.00 0.00
05/09/26 5:16:23 AM 38 0.0 0.0 55 87 70.1 56.1 29.906 7.26 0.0 0 0.00 0.00 0.00 0.00
05/09/26 5:17:33 AM 36 0.0 0.0 55 87 70.0 56.1 29.910 7.26 0.0 0 0.00 0.00 0.00 0.00
05/09/26 5:18:28 AM 40 0.0 0.0 55 87 69.9 56.1 29.906 7.26 0.0 0 0.00 0.00 0.00 0.00
05/09/26 5:19:17 AM 29 0.0 0.0 55 87 69.8 56.1 29.907 7.26 0.0 0 0.00 0.00 0.00 0.00
05/09/26 5:20:24 AM 38 0.0 0.0 55 87 69.7 56.1 29.902 7.26 0.0 0 0.00 0.00 0.00 0.00
05/09/26 5:21:16 AM 37 0.0 0.0 55 87 69.7 56.1 29.904 7.26 0.0 0 0.00 0.00 0.00 0.00
05/09/26 5:22:29 AM 35 0.0 0.0 55 87 69.5 56.0 29.904 7.26 0.0 0 0.00 0.00 0.00 0.00
05/09/26 5:23:21 AM 34 0.0 0.0 55 87 69.4 56.0 29.904 7.26 0.0 0 0.00 0.00 0.00 0.00
05/09/26 5:24:35 AM 37 0.0 0.0 55 87 69.4 56.0 29.906 7.26 0.0 0 0.00 0.00 0.00 0.00
05/09/26 5:25:20 AM 35 0.0 0.0 56 87 69.3 56.0 29.908 7.26 0.0 0 0.00 0.00 0.00 0.00
05/09/26 5:26:34 AM 37 0.0 0.0 56 87 69.2 55.9 29.907 7.26 0.0 0 0.00 0.00 0.00 0.00
05/09/26 5:27:26 AM 36 0.0 0.0 56 87 69.1 55.9 29.910 7.26 0.0 0 0.00 0.00 0.00 0.00
05/09/26 5:28:18 AM 36 0.0 0.0 56 87 69.1 55.8 29.908 7.26 0.0 0 0.00 0.00 0.00 0.00
05/09/26 5:29:31 AM 38 0.0 0.0 56 87 68.9 55.7 29.908 7.26 0.0 0 0.00 0.00 0.00 0.00
05/09/26 5:30:20 AM 35 0.0 0.0 56 87 68.9 55.7 29.909 7.26 0.0 0 0.00 0.00 0.00 0.00
05/09/26 5:31:30 AM 38 0.0 0.0 56 87 68.8 55.7 29.909 7.26 0.0 0 0.00 0.00 0.00 0.00
05/09/26 5:32:22 AM 29 0.0 0.0 56 87 68.8 55.7 29.908 7.26 0.0 0 0.00 0.00 0.00 0.00
05/09/26 5:33:17 AM 36 0.0 0.0 56 87 68.7 55.6 29.909 7.26 0.0 0 0.00 0.00 0.00 0.00
05/09/26 5:34:27 AM 36 0.0 0.0 56 87 68.6 55.6 29.909 7.26 0.0 0 0.00 0.00 0.00 0.00
05/09/26 5:35:19 AM 38 0.0 0.0 56 87 68.5 55.6 29.910 7.26 0.0 0 0.00 0.00 0.00 0.00
05/09/26 5:36:29 AM 38 0.0 0.0 56 87 68.4 55.6 29.910 7.26 0.0 0 0.00 0.00 0.00 0.00
05/09/26 5:37:21 AM 36 0.0 0.0 56 87 68.4 55.5 29.911 7.26 0.0 0 0.00 0.00 0.00 0.00
05/09/26 5:38:34 AM 37 0.0 0.0 56 87 68.4 55.5 29.911 7.26 0.0 0 0.00 0.00 0.00 0.00
05/09/26 5:39:23 AM 34 0.0 0.0 56 87 68.3 55.5 29.912 7.26 0.0 0 0.00 0.00 0.00 0.00
05/09/26 5:40:15 AM 38 0.0 0.0 56 87 68.2 55.5 29.909 7.26 0.0 0 0.00 0.00 0.00 0.00
05/09/26 5:41:25 AM 34 0.0 0.0 56 87 68.2 55.5 29.911 7.26 0.0 0 0.00 0.00 0.00 0.00
05/09/26 5:42:17 AM 38 0.0 0.0 56 87 68.1 55.5 29.911 7.26 0.0 0 0.00 0.00 0.00 0.00
05/09/26 5:43:27 AM 35 0.0 0.0 56 87 68.1 55.5 29.910 7.26 0.0 0 0.00 0.00 0.00 0.00
05/09/26 5:44:19 AM 29 0.0 0.0 56 87 68.0 55.5 29.911 7.26 0.0 0 0.00 0.00 0.00 0.00
05/09/26 5:45:33 AM 37 0.0 0.0 57 87 68.0 55.5 29.911 7.26 0.0 0 0.00 0.00 0.00 0.00
05/09/26 5:46:22 AM 36 0.0 0.0 57 87 67.9 55.4 29.911 7.26 0.0 0 0.00 0.00 0.00 0.00
05/09/26 5:47:35 AM 37 0.0 0.0 57 87 67.8 55.4 29.910 7.26 0.0 0 0.00 0.00 0.00 0.00
05/09/26 5:48:27 AM 37 0.0 0.0 57 87 67.8 55.4 29.912 7.26 0.0 0 0.00 0.00 0.00 0.00
05/09/26 5:49:19 AM 34 0.0 0.0 57 87 67.8 55.4 29.911 7.26 0.0 0 0.00 0.00 0.00 0.00
05/09/26 5:50:32 AM 36 0.0 0.0 57 87 67.7 55.4 29.911 7.26 0.0 0 0.00 0.00 0.00 0.00
05/09/26 5:51:24 AM 38 0.0 0.0 57 87 67.7 55.4 29.912 7.26 0.0 0 0.00 0.00 0.00 0.00
05/09/26 5:52:31 AM 34 0.0 0.0 57 87 67.6 55.4 29.911 7.26 0.0 0 0.00 0.00 0.00 0.00
05/09/26 5:53:23 AM 36 0.0 0.0 58 87 67.6 55.4 29.911 7.26 0.0 0 0.00 0.00 0.00 0.00
05/09/26 5:54:36 AM 36 0.0 0.0 58 87 67.5 55.4 29.913 7.26 0.0 5 0.00 0.00 0.00 0.00
05/09/26 5:55:28 AM 32 0.0 0.0 58 87 67.5 55.4 29.910 7.26 0.0 5 0.00 0.00 0.00 0.00
05/09/26 5:56:20 AM 37 0.0 0.0 58 87 67.4 55.4 29.911 7.26 0.0 5 0.00 0.00 0.00 0.00
05/09/26 5:57:27 AM 37 0.0 0.0 58 87 67.4 55.4 29.912 7.26 0.0 5 0.00 0.00 0.00 0.00
05/09/26 5:58:19 AM 36 0.0 0.0 58 87 67.3 55.4 29.912 7.26 0.0 5 0.00 0.00 0.00 0.00
05/09/26 5:59:32 AM 36 0.0 0.0 58 87 67.3 55.4 29.912 7.26 0.0 5 0.00 0.00 0.00 0.00
05/09/26 6:00:45 AM 36 0.0 0.0 58 87 67.3 55.4 29.910 7.26 0.0 7 0.00 0.00 0.00 0.00
05/09/26 6:01:16 AM 36 0.0 0.0 58 87 67.2 55.4 29.912 7.26 0.0 7 0.00 0.00 0.00 0.00
05/09/26 6:02:29 AM 36 0.0 0.0 58 87 67.2 55.4 29.913 7.26 0.0 7 0.00 0.00 0.00 0.00
05/09/26 6:03:16 AM 36 0.0 0.0 58 87 67.2 55.4 29.913 7.26 0.0 7 0.00 0.00 0.00 0.00
05/09/26 6:04:29 AM 38 0.0 0.0 58 87 67.2 55.4 29.911 7.26 0.0 9 0.00 0.00 0.00 0.00
05/09/26 6:05:21 AM 35 0.0 0.0 58 87 67.1 55.4 29.913 7.26 0.0 9 0.00 0.00 0.00 0.00
05/09/26 6:06:34 AM 38 0.0 0.0 58 87 67.0 55.4 29.915 7.26 0.0 9 0.00 0.00 0.00 0.00
05/09/26 6:07:26 AM 32 0.0 0.0 58 87 67.1 55.4 29.914 7.26 0.0 9 0.00 0.00 0.00 0.00
05/09/26 6:08:33 AM 38 0.0 0.0 58 87 67.0 55.4 29.916 7.26 0.0 9 0.00 0.00 0.00 0.00
05/09/26 6:09:25 AM 37 0.0 0.0 58 88 66.9 55.5 29.917 7.26 0.0 11 0.00 0.00 0.00 0.00
05/09/26 6:10:20 AM 36 0.0 0.0 58 88 66.9 55.5 29.918 7.26 0.0 11 0.00 0.00 0.00 0.00
05/09/26 6:11:30 AM 37 0.0 0.0 59 88 66.9 55.5 29.917 7.26 0.0 11 0.00 0.00 0.00 0.00
05/09/26 6:12:22 AM 35 0.0 0.0 59 88 66.8 55.5 29.917 7.26 0.0 12 0.00 0.00 0.00 0.00
05/09/26 6:13:33 AM 34 0.0 0.0 59 88 66.8 55.5 29.915 7.26 0.0 12 0.00 0.00 0.00 0.00
05/09/26 6:14:25 AM 35 0.0 0.0 59 88 66.8 55.5 29.915 7.26 0.0 12 0.00 0.00 0.00 0.00
05/09/26 6:15:38 AM 37 0.0 0.0 59 88 66.8 55.6 29.916 7.26 0.0 14 0.00 0.00 0.00 0.00
05/09/26 6:16:27 AM 34 0.0 0.0 59 88 66.7 55.6 29.915 7.26 0.0 14 0.00 0.00 0.00 0.00
05/09/26 6:17:19 AM 32 0.0 0.0 59 88 66.7 55.6 29.915 7.26 0.0 16 0.00 0.00 0.00 0.00
05/09/26 6:18:32 AM 36 0.0 0.0 59 88 66.6 55.6 29.916 7.26 0.0 16 0.00 0.00 0.00 0.00
05/09/26 6:19:21 AM 38 0.0 0.0 59 88 66.6 55.6 29.914 7.26 0.0 18 0.00 0.00 0.00 0.00
05/09/26 6:20:34 AM 37 0.0 0.0 59 88 66.6 55.6 29.917 7.26 0.0 18 0.00 0.00 0.00 0.00
05/09/26 6:21:26 AM 38 0.0 0.0 59 88 66.5 55.6 29.918 7.26 0.0 19 0.00 0.00 0.00 0.00
05/09/26 6:22:15 AM 34 0.0 0.0 59 88 66.5 55.6 29.918 7.26 0.0 19 0.00 0.00 0.00 0.00
05/09/26 6:23:28 AM 32 0.0 0.0 59 88 66.5 55.6 29.917 7.26 0.0 21 0.00 0.00 0.00 0.00
05/09/26 6:24:35 AM 36 0.0 0.0 59 88 66.5 55.6 29.918 7.26 0.0 28 0.00 0.00 0.00 0.00
05/09/26 6:25:27 AM 34 0.0 0.0 59 88 66.5 55.6 29.920 7.26 0.0 28 0.00 0.00 0.00 0.00
05/09/26 6:26:19 AM 38 0.0 0.0 59 88 66.4 55.6 29.922 7.26 0.0 33 0.00 0.00 0.00 0.00
05/09/26 6:27:33 AM 34 0.0 0.0 59 88 66.4 55.6 29.922 7.26 0.0 35 0.00 0.00 0.00 0.00
05/09/26 6:28:25 AM 34 0.0 0.0 60 88 66.4 55.6 29.921 7.26 0.0 35 0.00 0.00 0.00 0.00
05/09/26 6:29:17 AM 35 0.0 0.0 60 88 66.3 55.6 29.922 7.26 0.0 39 0.00 0.00 0.00 0.00
05/09/26 6:30:27 AM 34 0.0 0.0 60 88 66.3 55.6 29.923 7.26 0.0 40 0.00 0.00 0.00 0.00
05/09/26 6:31:37 AM 32 0.0 0.0 60 88 66.3 55.6 29.923 7.26 0.0 42 0.00 0.00 0.00 0.00
05/09/26 6:32:29 AM 35 0.0 0.0 60 88 66.3 55.6 29.920 7.26 0.0 44 0.00 0.00 0.00 0.00
05/09/26 6:33:21 AM 37 0.0 0.0 60 88 66.3 55.6 29.920 7.26 0.0 46 0.00 0.00 0.00 0.00
05/09/26 6:34:31 AM 37 0.0 0.0 60 88 66.3 55.7 29.922 7.26 0.0 47 0.00 0.00 0.00 0.00
05/09/26 6:35:20 AM 38 0.0 0.0 60 88 66.3 55.7 29.921 7.26 0.0 49 0.00 0.00 0.00 0.00
05/09/26 6:36:30 AM 34 0.0 0.0 60 88 66.2 55.7 29.922 7.26 0.0 49 0.00 0.00 0.00 0.00
05/09/26 6:37:25 AM 35 0.0 0.0 60 88 66.2 55.8 29.920 7.26 0.0 51 0.00 0.00 0.00 0.00
05/09/26 6:38:17 AM 37 0.0 0.0 60 88 66.2 55.8 29.922 7.26 0.0 53 0.00 0.00 0.00 0.00
05/09/26 6:39:27 AM 34 0.0 0.0 60 88 66.2 55.8 29.923 7.26 0.0 56 0.00 0.00 0.00 0.00
05/09/26 6:40:38 AM 38 0.0 0.0 60 88 66.2 55.9 29.923 7.26 0.0 58 0.00 0.00 0.00 0.00
05/09/26 6:41:30 AM 37 0.0 0.0 60 88 66.2 55.9 29.920 7.26 0.0 62 0.00 0.00 0.00 0.00
05/09/26 6:42:22 AM 37 0.0 0.0 60 88 66.1 56.0 29.920 7.26 0.0 62 0.00 0.00 0.00 0.00
05/09/26 6:43:35 AM 32 0.0 0.0 60 88 66.1 56.0 29.921 7.26 0.0 65 0.00 0.00 0.00 0.00
05/09/26 6:44:27 AM 35 0.0 0.0 60 89 66.1 56.1 29.925 7.26 0.0 70 0.00 0.00 0.00 0.00
05/09/26 6:45:40 AM 37 0.0 0.0 60 89 66.2 56.1 29.923 7.26 0.0 74 0.00 0.00 0.00 0.00
05/09/26 6:46:29 AM 37 0.0 0.0 60 89 66.1 56.2 29.924 7.26 0.0 77 0.00 0.00 0.00 0.00
05/09/26 6:47:18 AM 32 0.0 0.0 60 89 66.1 56.2 29.923 7.26 0.0 81 0.00 0.00 0.00 0.00
05/09/26 6:48:31 AM 36 0.0 0.0 60 89 66.1 56.3 29.925 7.26 0.0 84 0.00 0.00 0.00 0.00
05/09/26 6:49:23 AM 34 0.0 0.0 60 88 66.1 56.3 29.922 7.26 0.0 88 0.00 0.00 0.00 0.00
05/09/26 6:50:19 AM 35 0.0 0.0 60 88 66.1 56.3 29.922 7.26 0.0 91 0.00 0.00 0.00 0.00
05/09/26 6:51:26 AM 36 0.0 0.0 60 88 66.1 56.4 29.922 7.26 0.0 91 0.00 0.00 0.00 0.00
05/09/26 6:52:18 AM 38 0.0 0.0 60 88 66.1 56.4 29.923 7.26 0.0 97 0.00 0.00 0.00 0.00
05/09/26 6:53:28 AM 36 0.0 0.0 60 89 66.1 56.5 29.921 7.26 0.0 100 0.00 0.00 0.00 0.00
05/09/26 6:54:20 AM 38 0.0 0.0 60 89 66.1 56.6 29.923 7.26 0.0 102 0.00 0.00 0.00 0.00
05/09/26 6:55:33 AM 35 0.0 0.0 60 89 66.1 56.7 29.919 7.26 0.0 109 0.00 0.00 0.00 0.00
05/09/26 6:56:28 AM 38 0.0 0.0 61 89 66.1 56.8 29.922 7.26 0.0 109 0.00 0.00 0.00 0.00
05/09/26 6:57:35 AM 38 0.0 0.0 61 89 66.1 56.9 29.922 7.26 0.0 114 0.00 0.00 0.00 0.00
05/09/26 6:58:28 AM 37 0.0 0.0 61 89 66.1 57.0 29.920 7.26 0.0 116 0.00 0.00 0.00 0.00
05/09/26 6:59:20 AM 37 0.0 0.0 61 89 66.1 57.1 29.922 7.26 0.0 120 0.00 0.00 0.00 0.00
05/09/26 7:00:33 AM 36 0.0 0.0 61 89 66.1 57.2 29.923 7.26 0.0 123 0.00 0.00 0.00 0.00
05/09/26 7:01:22 AM 32 0.0 0.0 62 89 66.1 57.3 29.924 7.26 0.0 127 0.00 0.00 0.00 0.00
05/09/26 7:02:29 AM 38 0.0 0.0 62 89 66.1 57.5 29.922 7.26 0.0 130 0.00 0.00 0.00 0.00
05/09/26 7:03:21 AM 37 0.0 0.0 62 89 66.1 57.6 29.924 7.26 0.0 134 0.00 0.00 0.00 0.00
05/09/26 7:04:34 AM 38 0.0 0.0 62 89 66.2 57.7 29.923 7.26 0.0 137 0.00 0.00 0.00 0.00
05/09/26 7:05:26 AM 36 0.0 0.0 63 89 66.2 57.8 29.923 7.26 0.0 141 0.00 0.00 0.00 0.00
05/09/26 7:06:18 AM 35 0.0 0.0 63 89 66.2 58.0 29.922 7.26 0.0 142 0.00 0.00 0.00 0.00
05/09/26 7:07:25 AM 35 0.0 0.0 63 89 66.2 58.1 29.923 7.26 0.0 146 0.00 0.00 0.00 0.00
05/09/26 7:08:17 AM 38 0.0 0.0 63 89 66.2 58.2 29.924 7.26 0.0 149 0.00 0.00 0.00 0.00
05/09/26 7:09:28 AM 36 0.0 0.0 63 89 66.2 58.4 29.924 7.26 0.0 153 0.00 0.00 0.00 0.00
05/09/26 7:10:20 AM 38 0.0 0.0 63 89 66.2 58.5 29.925 7.26 0.0 155 0.00 0.00 0.00 0.00
05/09/26 7:11:33 AM 38 0.0 0.0 63 89 66.2 58.6 29.926 7.26 0.0 162 0.00 0.00 0.00 0.00
05/09/26 7:12:25 AM 35 0.0 0.0 63 89 66.2 58.7 29.922 7.26 0.0 165 0.00 0.00 0.00 0.00
05/09/26 7:13:32 AM 38 0.0 0.0 63 89 66.2 58.8 29.921 7.26 0.0 167 0.00 0.00 0.00 0.00
05/09/26 7:14:24 AM 32 0.0 0.0 63 89 66.2 58.8 29.924 7.26 0.0 171 0.00 0.00 0.00 0.00
05/09/26 7:15:19 AM 36 0.0 0.0 63 89 66.3 58.9 29.924 7.26 0.0 174 0.00 0.00 0.00 0.00
05/09/26 7:16:29 AM 38 0.0 0.0 63 89 66.2 59.0 29.924 7.26 0.0 176 0.00 0.00 0.00 0.00
05/09/26 7:17:21 AM 36 0.0 0.0 63 89 66.2 59.1 29.921 7.26 0.0 181 0.00 0.00 0.00 0.00
05/09/26 7:18:28 AM 36 0.0 0.0 63 89 66.3 59.3 29.926 7.26 0.0 183 0.00 0.00 0.00 0.00
05/09/26 7:19:20 AM 34 2.0 3.0 63 88 66.3 59.4 29.926 7.26 0.0 186 0.00 0.00 0.00 0.00
05/09/26 7:20:34 AM 38 2.0 3.0 63 88 66.2 59.5 29.922 7.26 0.0 190 0.00 0.00 0.00 0.00
05/09/26 7:21:26 AM 36 3.0 4.0 63 88 66.3 59.5 29.922 7.26 0.0 193 0.00 0.00 0.00 0.00
05/09/26 7:22:18 AM 38 3.0 4.0 63 88 66.3 59.6 29.925 7.26 0.0 197 0.00 0.00 0.00 0.00
05/09/26 7:23:25 AM 32 2.0 4.0 64 88 66.3 59.7 29.925 7.26 0.0 202 0.00 0.00 0.00 0.00
05/09/26 7:24:17 AM 37 1.0 4.0 64 88 66.3 59.7 29.926 7.26 0.0 207 0.00 0.00 0.00 0.00
05/09/26 7:25:30 AM 38 1.0 4.0 64 87 66.3 59.8 29.926 7.26 0.0 211 0.00 0.00 0.00 0.00
05/09/26 7:26:22 AM 32 1.0 4.0 64 87 66.4 59.8 29.923 7.26 0.0 214 0.00 0.00 0.00 0.00
05/09/26 7:27:35 AM 35 1.0 4.0 64 87 66.4 59.9 29.926 7.26 0.0 221 0.00 0.00 0.00 0.00
05/09/26 7:28:28 AM 38 1.0 4.0 64 87 66.4 60.0 29.926 7.26 0.0 221 0.00 0.00 0.00 0.00
05/09/26 7:29:35 AM 30 2.0 4.0 64 87 66.4 60.0 29.927 7.26 0.0 221 0.00 0.00 0.00 0.00
05/09/26 7:30:30 AM 36 2.0 4.0 64 87 66.4 60.1 29.924 7.26 0.0 230 0.00 0.00 0.00 0.00
05/09/26 7:31:19 AM 38 1.0 4.0 64 87 66.5 60.1 29.924 7.26 0.0 234 0.00 0.00 0.00 0.00
05/09/26 7:32:32 AM 38 0.0 4.0 64 87 66.4 60.2 29.924 7.26 0.0 236 0.00 0.00 0.00 0.00
05/09/26 7:33:27 AM 38 0.0 4.0 64 87 66.4 60.3 29.924 7.26 0.0 239 0.00 0.00 0.00 0.00
05/09/26 7:34:34 AM 35 0.0 4.0 64 86 66.5 60.4 29.923 7.26 0.5 243 0.00 0.00 0.00 0.00
05/09/26 7:35:26 AM 38 0.0 4.0 64 86 66.5 60.4 29.922 7.26 0.5 246 0.00 0.00 0.00 0.00
05/09/26 7:36:15 AM 35 0.0 4.0 64 87 66.5 60.5 29.923 7.26 0.5 248 0.00 0.00 0.00 0.00
05/09/26 7:37:29 AM 32 0.0 4.0 64 86 66.5 60.7 29.922 7.26 0.5 251 0.00 0.00 0.00 0.00
05/09/26 7:38:21 AM 38 0.0 4.0 64 86 66.5 60.8 29.923 7.26 0.5 251 0.00 0.00 0.00 0.00
05/09/26 7:39:31 AM 39 0.0 4.0 64 86 66.5 60.9 29.924 7.26 0.5 258 0.00 0.00 0.00 0.00
05/09/26 7:40:23 AM 38 0.0 4.0 64 86 66.5 61.0 29.921 7.26 0.5 262 0.00 0.00 0.00 0.00
05/09/26 7:41:33 AM 36 0.0 4.0 64 86 66.5 61.1 29.924 7.26 0.5 267 0.00 0.00 0.00 0.00
05/09/26 7:42:28 AM 39 0.0 4.0 64 86 66.5 61.2 29.927 7.26 0.5 271 0.00 0.00 0.00 0.00
05/09/26 7:43:20 AM 32 0.0 4.0 64 85 66.5 61.3 29.924 7.26 0.6 274 0.00 0.00 0.00 0.00
05/09/26 7:44:33 AM 35 0.0 4.0 64 85 66.5 61.4 29.926 7.26 0.6 276 0.00 0.00 0.00 0.00
05/09/26 7:45:22 AM 38 0.0 4.0 64 85 66.5 61.5 29.924 7.26 0.6 279 0.00 0.00 0.00 0.00
05/09/26 7:46:32 AM 38 0.0 4.0 64 85 66.6 61.6 29.925 7.26 0.6 281 0.00 0.00 0.00 0.00
05/09/26 7:47:24 AM 37 0.0 4.0 64 85 66.6 61.7 29.926 7.26 0.6 283 0.00 0.00 0.00 0.00
05/09/26 7:48:16 AM 36 0.0 4.0 64 85 66.6 61.8 29.923 7.26 0.6 287 0.00 0.00 0.00 0.00
05/09/26 7:49:30 AM 36 0.0 4.0 64 84 66.6 61.9 29.927 7.26 0.6 292 0.00 0.00 0.00 0.00
05/09/26 7:50:16 AM 31 0.0 4.0 64 84 66.6 62.0 29.927 7.26 0.7 295 0.00 0.00 0.00 0.00
05/09/26 7:51:29 AM 35 0.0 4.0 64 84 66.6 62.1 29.927 7.26 0.7 299 0.00 0.00 0.00 0.00
05/09/26 7:52:21 AM 38 3.0 4.0 64 84 66.7 62.2 29.925 7.26 0.7 302 0.00 0.00 0.00 0.00
05/09/26 7:53:31 AM 36 1.0 4.0 64 83 66.7 62.3 29.928 7.26 0.7 306 0.00 0.00 0.00 0.00
05/09/26 7:54:23 AM 31 1.0 4.0 64 83 66.7 62.4 29.927 7.26 0.7 306 0.00 0.00 0.00 0.00
05/09/26 7:55:33 AM 36 0.0 4.0 64 83 66.8 62.5 29.928 7.26 0.7 315 0.00 0.00 0.00 0.00
05/09/26 7:56:25 AM 38 2.0 4.0 64 82 66.8 62.5 29.929 7.26 0.7 315 0.00 0.00 0.00 0.00
05/09/26 7:57:18 AM 38 1.0 4.0 64 82 66.8 62.6 29.927 7.26 0.7 318 0.00 0.00 0.00 0.00
05/09/26 7:58:28 AM 38 1.0 4.0 64 82 66.8 62.7 29.931 7.26 0.8 325 0.00 0.00 0.00 0.00
05/09/26 7:59:23 AM 37 2.0 4.0 64 82 66.8 62.9 29.928 7.26 0.8 329 0.00 0.00 0.00 0.00
05/09/26 8:00:36 AM 36 2.0 4.0 64 82 66.9 63.0 29.929 7.26 0.8 330 0.00 0.00 0.00 0.00
05/09/26 8:01:22 AM 32 1.0 4.0 64 81 66.9 63.1 29.930 7.26 0.8 336 0.00 0.00 0.00 0.00
05/09/26 8:02:32 AM 35 1.0 4.0 64 81 66.8 63.2 29.930 7.26 0.8 339 0.00 0.00 0.00 0.00
05/09/26 8:03:27 AM 35 2.0 4.0 64 81 66.9 63.2 29.929 7.26 0.8 343 0.00 0.00 0.00 0.00
05/09/26 8:04:19 AM 38 2.0 4.0 64 81 66.9 63.4 29.930 7.26 0.9 346 0.00 0.00 0.00 0.00
05/09/26 8:05:29 AM 36 2.0 4.0 64 80 66.9 63.4 29.930 7.26 0.9 350 0.00 0.00 0.00 0.00
05/09/26 8:06:18 AM 37 2.0 4.0 64 80 67.0 63.5 29.929 7.26 0.9 353 0.00 0.00 0.00 0.00
05/09/26 8:07:29 AM 34 0.0 4.0 64 79 67.0 63.6 29.930 7.26 0.9 355 0.00 0.00 0.00 0.00
05/09/26 8:08:21 AM 38 0.0 4.0 64 79 67.0 63.6 29.931 7.26 0.9 359 0.00 0.00 0.00 0.00
05/09/26 8:09:34 AM 38 0.0 4.0 64 79 67.0 63.7 29.931 7.26 0.9 367 0.00 0.00 0.00 0.00
05/09/26 8:10:26 AM 35 0.0 4.0 64 79 67.0 63.8 29.930 7.26 0.9 367 0.00 0.00 0.00 0.00
05/09/26 8:11:21 AM 37 1.0 4.0 64 79 67.1 63.8 29.930 7.26 1.0 369 0.00 0.00 0.00 0.00
05/09/26 8:12:28 AM 38 1.0 4.0 64 78 67.0 63.9 29.930 7.26 1.0 378 0.00 0.00 0.00 0.00
05/09/26 8:13:20 AM 32 1.0 4.0 64 78 67.0 64.0 29.931 7.26 1.0 381 0.00 0.00 0.00 0.00
05/09/26 8:14:33 AM 34 0.0 4.0 64 78 67.0 64.2 29.933 7.26 1.0 385 0.00 0.00 0.00 0.00
05/09/26 8:15:28 AM 34 0.0 4.0 64 78 67.1 64.3 29.930 7.26 1.0 387 0.00 0.00 0.00 0.00
05/09/26 8:16:17 AM 37 0.0 4.0 64 78 67.1 64.3 29.931 7.26 1.0 387 0.00 0.00 0.00 0.00
05/09/26 8:17:24 AM 36 2.0 4.0 64 78 67.1 64.5 29.931 7.26 1.1 394 0.00 0.00 0.00 0.00
05/09/26 8:18:17 AM 32 2.0 4.0 64 77 67.1 64.6 29.930 7.26 1.1 397 0.00 0.00 0.00 0.00
05/09/26 8:19:27 AM 37 1.0 4.0 64 76 67.2 64.7 29.930 7.26 1.1 401 0.00 0.00 0.00 0.00
05/09/26 8:20:19 AM 38 1.0 4.0 64 76 67.2 64.8 29.929 7.26 1.1 406 0.00 0.00 0.00 0.00
05/09/26 8:21:32 AM 38 1.0 4.0 64 75 67.2 65.0 29.929 7.26 1.1 408 0.00 0.00 0.00 0.00
05/09/26 8:22:21 AM 36 2.0 4.0 64 75 67.2 65.1 29.930 7.26 1.2 408 0.00 0.00 0.00 0.00
05/09/26 8:23:34 AM 36 2.0 4.0 64 75 67.2 65.2 29.930 7.26 1.2 413 0.00 0.00 0.00 0.00
05/09/26 8:24:26 AM 38 1.0 4.0 64 75 67.2 65.3 29.930 7.26 1.2 413 0.00 0.00 0.00 0.00
05/09/26 8:25:18 AM 34 1.0 4.0 64 75 67.3 65.4 29.928 7.26 1.2 420 0.00 0.00 0.00 0.00
05/09/26 8:26:28 AM 34 2.0 4.0 64 74 67.3 65.6 29.925 7.26 1.2 425 0.00 0.00 0.00 0.00
05/09/26 8:27:21 AM 35 0.0 4.0 64 74 67.3 65.7 29.929 7.26 1.2 425 0.00 0.00 0.00 0.00
05/09/26 8:28:28 AM 32 2.0 4.0 64 73 67.4 65.8 29.928 7.26 1.3 434 0.00 0.00 0.00 0.00
05/09/26 8:29:20 AM 36 1.0 4.0 64 73 67.4 65.9 29.926 7.26 1.3 438 0.00 0.00 0.00 0.00
05/09/26 8:30:33 AM 35 1.0 4.0 64 73 67.4 66.1 29.926 7.26 1.3 441 0.00 0.00 0.00 0.00
05/09/26 8:31:25 AM 38 1.0 4.0 64 72 67.4 66.2 29.926 7.26 1.3 443 0.00 0.00 0.00 0.00
05/09/26 8:32:17 AM 38 1.0 4.0 64 72 67.5 66.4 29.926 7.26 1.3 446 0.00 0.00 0.00 0.00
05/09/26 8:33:24 AM 37 2.0 4.0 64 72 67.5 66.5 29.922 7.26 1.3 450 0.00 0.00 0.00 0.00
05/09/26 8:34:16 AM 35 2.0 4.0 64 71 67.5 66.7 29.926 7.26 1.4 452 0.00 0.00 0.00 0.00
05/09/26 8:35:30 AM 36 0.0 4.0 64 70 67.5 66.8 29.922 7.26 1.4 455 0.00 0.00 0.00 0.00
05/09/26 8:36:22 AM 38 0.0 4.0 64 70 67.5 66.9 29.923 7.26 1.4 455 0.00 0.00 0.00 0.00
05/09/26 8:37:35 AM 38 2.0 4.0 64 70 67.6 67.0 29.925 7.26 1.4 462 0.00 0.00 0.00 0.00
05/09/26 8:38:24 AM 35 1.0 4.0 64 70 67.6 67.1 29.923 7.26 1.4 462 0.00 0.00 0.00 0.00
05/09/26 8:39:34 AM 38 1.0 4.0 64 70 67.6 67.2 29.923 7.26 1.4 473 0.00 0.00 0.00 0.00
05/09/26 8:40:26 AM 31 0.0 4.0 64 69 67.7 67.3 29.923 7.26 1.5 473 0.00 0.00 0.00 0.00
05/09/26 8:41:18 AM 35 0.0 4.0 64 70 67.7 67.3 29.923 7.26 1.5 476 0.00 0.00 0.00 0.00
05/09/26 8:42:31 AM 38 0.0 4.0 64 69 67.7 67.4 29.923 7.26 1.5 483 0.00 0.00 0.00 0.00
05/09/26 8:43:24 AM 36 0.0 4.0 64 70 67.7 67.5 29.926 7.26 1.5 485 0.00 0.00 0.00 0.00
05/09/26 8:44:31 AM 37 1.0 4.0 64 70 67.7 67.8 29.923 7.26 1.6 487 0.00 0.00 0.00 0.00
05/09/26 8:45:26 AM 34 1.0 4.0 64 69 67.8 67.9 29.923 7.26 1.6 490 0.00 0.00 0.00 0.00
05/09/26 8:46:36 AM 38 1.0 4.0 64 68 67.8 68.1 29.923 7.26 1.6 494 0.00 0.00 0.00 0.00
05/09/26 8:47:28 AM 36 0.0 4.0 64 68 67.8 68.2 29.924 7.26 1.6 497 0.00 0.00 0.00 0.00
05/09/26 8:48:20 AM 38 0.0 4.0 64 68 67.8 68.3 29.922 7.26 1.7 503 0.00 0.00 0.00 0.00
05/09/26 8:49:27 AM 38 1.0 4.0 64 68 67.9 68.4 29.924 7.26 1.7 504 0.00 0.00 0.00 0.00
05/09/26 8:50:20 AM 35 3.0 4.0 64 67 67.9 68.6 29.924 7.26 1.7 508 0.00 0.00 0.00 0.00
05/09/26 8:51:30 AM 35 2.0 4.0 64 66 68.0 68.7 29.923 7.26 1.7 510 0.00 0.00 0.00 0.00
05/09/26 8:52:22 AM 37 2.0 4.0 64 66 68.0 68.7 29.927 7.26 1.7 512 0.00 0.00 0.00 0.00
05/09/26 8:53:35 AM 37 1.0 4.0 64 66 68.0 68.7 29.923 7.26 1.7 513 0.00 0.00 0.00 0.00
05/09/26 8:54:24 AM 36 2.0 4.0 64 66 68.1 68.8 29.926 7.26 1.8 517 0.00 0.00 0.00 0.00
05/09/26 8:55:34 AM 35 2.0 4.0 64 66 68.1 68.8 29.925 7.26 1.8 522 0.00 0.00 0.00 0.00
05/09/26 8:56:26 AM 36 1.0 4.0 64 66 68.1 68.9 29.926 7.26 1.8 522 0.00 0.00 0.00 0.00
05/09/26 8:57:19 AM 37 2.0 4.0 64 65 68.1 68.9 29.925 7.26 1.8 524 0.00 0.00 0.00 0.00
05/09/26 8:58:32 AM 32 2.0 4.0 64 65 68.2 69.0 29.925 7.26 1.9 527 0.00 0.00 0.00 0.00
05/09/26 8:59:24 AM 35 1.0 4.0 64 65 68.2 69.0 29.924 7.26 1.9 527 0.00 0.00 0.00 0.00
05/09/26 9:00:52 AM 36 3.0 4.0 64 65 68.2 69.1 29.925 7.26 1.9 529 0.00 0.00 0.00 0.00
05/09/26 9:01:26 AM 32 1.0 4.0 64 65 68.3 69.2 29.923 7.26 1.9 529 0.00 0.00 0.00 0.00
05/09/26 9:02:15 AM 34 2.0 4.0 64 64 68.3 69.2 29.923 7.26 2.0 531 0.00 0.00 0.00 0.00
05/09/26 9:03:29 AM 36 2.0 4.0 64 64 68.3 69.3 29.924 7.26 2.0 531 0.00 0.00 0.00 0.00
05/09/26 9:04:18 AM 35 0.0 4.0 64 64 68.4 69.4 29.923 7.26 2.0 531 0.00 0.00 0.00 0.00
05/09/26 9:05:28 AM 34 2.0 4.0 64 64 68.4 69.5 29.922 7.26 2.0 536 0.00 0.00 0.00 0.00
05/09/26 9:06:20 AM 36 3.0 4.0 64 64 68.4 69.7 29.922 7.26 2.0 536 0.00 0.00 0.00 0.00
05/09/26 9:07:33 AM 36 3.0 4.0 64 63 68.4 69.8 29.922 7.26 2.1 536 0.00 0.00 0.00 0.00
05/09/26 9:08:22 AM 36 3.0 4.0 64 63 68.5 69.8 29.923 7.26 2.1 534 0.00 0.00 0.00 0.00
05/09/26 9:09:36 AM 36 2.0 4.0 64 63 68.5 69.8 29.926 7.26 2.1 533 0.00 0.00 0.00 0.00
05/09/26 9:10:28 AM 37 2.0 4.0 64 63 68.5 69.9 29.922 7.26 2.1 533 0.00 0.00 0.00 0.00
05/09/26 9:11:17 AM 38 3.0 4.0 64 63 68.5 69.9 29.924 7.26 2.1 534 0.00 0.00 0.00 0.00
05/09/26 9:12:27 AM 35 3.0 4.0 64 63 68.6 69.9 29.923 7.26 2.2 534 0.00 0.00 0.00 0.00
05/09/26 9:13:19 AM 32 3.0 4.0 64 62 68.6 69.9 29.922 7.26 2.2 534 0.00 0.00 0.00 0.00
05/09/26 9:14:32 AM 35 2.0 4.0 64 63 68.7 69.9 29.922 7.26 2.2 534 0.00 0.00 0.00 0.00
05/09/26 9:15:27 AM 36 2.0 4.0 64 63 68.6 69.9 29.921 7.26 2.2 533 0.00 0.00 0.00 0.00
05/09/26 9:16:32 AM 38 2.0 4.0 64 63 68.7 70.0 29.921 7.26 2.3 534 0.00 0.00 0.00 0.00
05/09/26 9:17:27 AM 35 1.0 4.0 64 63 68.7 70.0 29.920 7.26 2.3 534 0.00 0.00 0.00 0.00
05/09/26 9:18:16 AM 36 1.0 4.0 64 63 68.8 70.1 29.920 7.26 2.3 536 0.00 0.00 0.00 0.00
05/09/26 9:19:29 AM 36 2.0 4.0 64 62 68.8 70.2 29.921 7.26 2.3 534 0.00 0.00 0.00 0.00
05/09/26 9:20:21 AM 36 0.0 4.0 64 62 68.8 70.3 29.919 7.26 2.4 534 0.00 0.00 0.00 0.00
05/09/26 9:21:28 AM 32 0.0 4.0 64 62 68.8 70.5 29.921 7.26 2.4 536 0.00 0.00 0.00 0.00
05/09/26 9:22:20 AM 35 1.0 4.0 64 62 68.8 70.8 29.921 7.26 2.4 534 0.00 0.00 0.00 0.00
05/09/26 9:23:34 AM 34 0.0 4.0 64 62 68.9 71.1 29.921 7.26 2.4 533 0.00 0.00 0.00 0.00
05/09/26 9:24:23 AM 36 1.0 4.0 64 61 68.9 71.2 29.920 7.26 2.4 533 0.00 0.00 0.00 0.00
05/09/26 9:25:36 AM 38 1.0 4.0 64 61 69.0 71.5 29.919 7.26 2.5 533 0.00 0.00 0.00 0.00
05/09/26 9:26:28 AM 36 1.0 4.0 64 61 69.0 71.6 29.921 7.26 2.5 533 0.00 0.00 0.00 0.00
05/09/26 9:27:17 AM 34 2.0 4.0 64 60 69.0 71.7 29.922 7.26 2.5 533 0.00 0.00 0.00 0.00
05/09/26 9:28:27 AM 37 2.0 4.0 64 60 69.0 71.9 29.920 7.26 2.6 527 0.00 0.00 0.00 0.00
05/09/26 9:29:19 AM 34 2.0 4.0 64 60 69.1 71.9 29.919 7.26 2.6 526 0.00 0.00 0.00 0.00
05/09/26 9:30:54 AM 36 2.0 4.0 64 59 69.1 72.0 29.922 7.26 2.6 522 0.00 0.00 0.00 0.00
05/09/26 9:31:25 AM 36 3.0 4.0 64 59 69.1 72.0 29.921 7.26 2.6 524 0.00 0.00 0.00 0.00
05/09/26 9:32:17 AM 37 0.0 4.0 64 59 69.1 72.1 29.921 7.26 2.7 527 0.00 0.00 0.00 0.00
05/09/26 9:33:24 AM 34 1.0 5.0 64 59 69.1 72.1 29.919 7.26 2.7 531 0.00 0.00 0.00 0.00
05/09/26 9:34:16 AM 35 3.0 5.0 64 59 69.2 72.2 29.920 7.26 2.7 529 0.00 0.00 0.00 0.00
05/09/26 9:35:30 AM 32 0.0 5.0 64 59 69.2 72.4 29.919 7.26 2.7 527 0.00 0.00 0.00 0.00
05/09/26 9:36:22 AM 36 1.0 5.0 64 59 69.2 72.5 29.921 7.26 2.8 529 0.00 0.00 0.00 0.00
05/09/26 9:37:32 AM 38 4.0 5.0 64 58 69.3 72.6 29.919 7.26 2.8 529 0.00 0.00 0.00 0.00
05/09/26 9:38:18 AM 34 3.0 5.0 64 58 69.3 72.7 29.920 7.26 2.8 531 0.00 0.00 0.00 0.00
05/09/26 9:39:31 AM 37 3.0 5.0 64 58 69.4 72.8 29.919 7.26 2.9 531 0.00 0.00 0.00 0.00
05/09/26 9:40:23 AM 34 1.0 5.0 64 57 69.4 72.8 29.919 7.26 2.9 531 0.00 0.00 0.00 0.00
05/09/26 9:41:34 AM 37 4.0 5.0 64 58 69.4 72.9 29.921 7.26 2.9 534 0.00 0.00 0.00 0.00
05/09/26 9:42:29 AM 38 3.0 5.0 64 57 69.4 73.0 29.918 7.26 2.9 536 0.00 0.00 0.00 0.00
05/09/26 9:43:36 AM 34 2.0 5.0 64 57 69.4 73.0 29.917 7.26 3.0 540 0.00 0.00 0.00 0.00
05/09/26 9:44:28 AM 34 3.0 5.0 64 57 69.4 73.1 29.917 7.26 3.0 538 0.00 0.00 0.00 0.00
05/09/26 9:45:20 AM 35 2.0 5.0 64 56 69.4 73.1 29.918 7.26 3.0 534 0.00 0.00 0.00 0.00
05/09/26 9:46:30 AM 38 2.0 5.0 64 56 69.5 73.2 29.917 7.26 3.0 536 0.00 0.00 0.00 0.00
05/09/26 9:47:22 AM 32 2.0 5.0 64 56 69.5 73.2 29.917 7.26 3.0 540 0.00 0.00 0.00 0.00
05/09/26 9:48:30 AM 34 1.0 5.0 64 57 69.5 73.3 29.917 7.26 3.1 547 0.00 0.00 0.00 0.00
05/09/26 9:49:22 AM 36 1.0 5.0 64 57 69.6 73.3 29.915 7.26 3.1 548 0.00 0.00 0.00 0.00
05/09/26 9:50:32 AM 37 1.0 5.0 64 56 69.6 73.4 29.918 7.26 3.1 548 0.00 0.00 0.00 0.00
05/09/26 9:51:24 AM 36 0.0 5.0 64 57 69.6 73.5 29.915 7.26 3.1 554 0.00 0.00 0.00 0.00
05/09/26 9:52:16 AM 36 1.0 5.0 64 57 69.6 73.6 29.919 7.26 3.2 559 0.00 0.00 0.00 0.00
05/09/26 9:53:30 AM 38 1.0 5.0 64 56 69.6 73.7 29.914 7.26 3.2 564 0.00 0.00 0.00 0.00
05/09/26 9:54:16 AM 36 1.0 5.0 64 56 69.7 73.7 29.917 7.26 3.2 570 0.00 0.00 0.00 0.00
05/09/26 9:55:29 AM 34 3.0 5.0 64 57 69.7 73.8 29.917 7.26 3.3 577 0.00 0.00 0.00 0.00
05/09/26 9:56:21 AM 31 2.0 5.0 64 56 69.7 73.8 29.917 7.26 3.3 577 0.00 0.00 0.00 0.00
05/09/26 9:57:34 AM 30 2.0 5.0 64 56 69.7 73.9 29.914 7.26 3.4 596 0.00 0.00 0.00 0.00
05/09/26 9:58:27 AM 35 3.0 5.0 64 57 69.8 73.9 29.912 7.26 3.4 596 0.00 0.00 0.00 0.00
05/09/26 9:59:34 AM 32 3.0 6.0 64 57 69.8 73.9 29.915 7.26 3.4 596 0.00 0.00 0.00 0.00
05/09/26 10:00:50 AM 34 1.0 6.0 64 57 69.9 74.0 29.914 7.26 3.5 615 0.00 0.00 0.00 0.00
05/09/26 10:01:21 AM 35 1.0 6.0 64 57 69.9 74.0 29.915 7.26 3.5 617 0.00 0.00 0.00 0.00
05/09/26 10:02:31 AM 31 0.0 6.0 64 57 69.9 74.2 29.915 7.26 3.5 617 0.00 0.00 0.00 0.00
05/09/26 10:03:23 AM 37 2.0 6.0 64 57 69.9 74.4 29.916 7.26 3.5 631 0.00 0.00 0.00 0.00
05/09/26 10:04:36 AM 32 2.0 6.0 64 57 69.9 74.7 29.915 7.26 3.6 645 0.00 0.00 0.00 0.00
05/09/26 10:05:23 AM 32 2.0 6.0 64 57 70.0 74.8 29.915 7.26 3.6 650 0.00 0.00 0.00 0.00
05/09/26 10:06:36 AM 38 1.0 6.0 64 55 70.0 74.9 29.915 7.26 3.6 652 0.00 0.00 0.00 0.00
05/09/26 10:07:28 AM 34 1.0 6.0 64 55 70.0 75.2 29.914 7.26 3.7 654 0.00 0.00 0.00 0.00
05/09/26 10:08:20 AM 38 2.0 6.0 64 54 70.1 75.4 29.914 7.26 3.7 659 0.00 0.00 0.00 0.00
05/09/26 10:09:30 AM 31 2.0 6.0 64 54 70.1 75.5 29.918 7.26 3.7 666 0.00 0.00 0.00 0.00
05/09/26 10:10:19 AM 34 3.0 6.0 64 53 70.1 75.7 29.917 7.26 3.7 675 0.00 0.00 0.00 0.00
05/09/26 10:11:30 AM 38 1.0 6.0 64 53 70.1 75.7 29.914 7.26 3.7 694 0.00 0.00 0.00 0.00
05/09/26 10:12:22 AM 38 2.0 6.0 64 53 70.2 75.8 29.917 7.26 3.7 694 0.00 0.00 0.00 0.00
05/09/26 10:13:35 AM 37 1.0 6.0 64 52 70.2 76.1 29.919 7.26 3.8 698 0.00 0.00 0.00 0.00
05/09/26 10:14:27 AM 36 2.0 6.0 64 53 70.2 76.2 29.918 7.26 3.8 719 0.00 0.00 0.00 0.00
05/09/26 10:15:19 AM 35 3.0 6.0 64 52 70.2 76.4 29.918 7.26 3.8 731 0.00 0.00 0.00 0.00
05/09/26 10:16:27 AM 37 3.0 6.0 64 52 70.2 76.4 29.918 7.26 3.9 747 0.00 0.00 0.00 0.00
05/09/26 10:17:19 AM 35 3.0 6.0 64 51 70.3 76.3 29.916 7.26 3.9 756 0.00 0.00 0.00 0.00
05/09/26 10:18:29 AM 32 2.0 6.0 64 50 70.3 76.2 29.918 7.26 4.0 763 0.00 0.00 0.00 0.00
05/09/26 10:19:24 AM 36 3.0 6.0 64 51 70.3 76.3 29.916 7.26 4.0 759 0.00 0.00 0.00 0.00
05/09/26 10:20:37 AM 35 2.0 6.0 64 51 70.4 76.4 29.916 7.26 4.0 759 0.00 0.00 0.00 0.00
05/09/26 10:21:24 AM 36 1.0 6.0 64 51 70.4 76.5 29.919 7.26 4.0 765 0.00 0.00 0.00 0.00
05/09/26 10:22:37 AM 32 2.0 6.0 64 51 70.4 76.7 29.916 7.26 4.0 766 0.00 0.00 0.00 0.00
05/09/26 10:23:29 AM 38 2.0 6.0 64 51 70.5 76.7 29.917 7.26 4.0 770 0.00 0.00 0.00 0.00
05/09/26 10:24:21 AM 38 1.0 6.0 64 51 70.5 76.8 29.917 7.26 4.1 779 0.00 0.00 0.00 0.00
05/09/26 10:25:31 AM 36 2.0 6.0 64 51 70.5 77.0 29.916 7.26 4.1 795 0.00 0.00 0.00 0.00
05/09/26 10:26:20 AM 38 3.0 6.0 64 50 70.5 77.2 29.916 7.26 4.2 795 0.00 0.00 0.00 0.00
05/09/26 10:27:30 AM 38 2.0 6.0 64 50 70.5 77.3 29.916 7.26 4.2 805 0.00 0.00 0.00 0.00
05/09/26 10:28:22 AM 34 2.0 6.0 64 50 70.6 77.3 29.912 7.26 4.2 809 0.00 0.00 0.00 0.00
05/09/26 10:29:18 AM 34 2.0 6.0 64 49 70.6 77.2 29.912 7.26 4.2 810 0.00 0.00 0.00 0.00
05/09/26 10:30:28 AM 34 2.0 6.0 64 51 70.7 77.3 29.913 7.26 4.3 812 0.00 0.00 0.00 0.00
05/09/26 10:31:20 AM 36 3.0 6.0 64 51 70.7 77.4 29.912 7.26 4.3 812 0.00 0.00 0.00 0.00
05/09/26 10:32:27 AM 31 1.0 6.0 64 51 70.7 77.5 29.913 7.26 4.3 816 0.00 0.00 0.00 0.00
05/09/26 10:33:19 AM 34 3.0 6.0 64 50 70.7 77.6 29.915 7.26 4.3 817 0.00 0.00 0.00 0.00
05/09/26 10:34:30 AM 38 3.0 6.0 64 51 70.8 77.7 29.913 7.26 4.4 823 0.00 0.00 0.00 0.00
05/09/26 10:35:22 AM 35 0.0 6.0 64 51 70.8 77.8 29.914 7.26 4.4 823 0.00 0.00 0.00 0.00
05/09/26 10:36:35 AM 38 1.0 6.0 64 50 70.8 78.0 29.912 7.26 4.4 824 0.00 0.00 0.00 0.00
05/09/26 10:37:22 AM 36 1.0 6.0 64 50 70.8 78.0 29.915 7.26 4.4 821 0.00 0.00 0.00 0.00
05/09/26 10:38:32 AM 32 2.0 6.0 64 49 70.9 78.1 29.914 7.26 4.4 826 0.00 0.00 0.00 0.00
05/09/26 10:39:24 AM 32 1.0 6.0 64 48 70.9 78.2 29.915 7.26 4.5 828 0.00 0.00 0.00 0.00
05/09/26 10:40:34 AM 35 4.0 6.0 64 48 70.9 78.3 29.915 7.26 4.5 838 0.00 0.00 0.00 0.00
05/09/26 10:41:29 AM 36 3.0 6.0 64 48 71.0 78.4 29.913 7.26 4.6 838 0.00 0.00 0.00 0.00
05/09/26 10:42:19 AM 38 2.0 6.0 64 48 71.0 78.5 29.914 7.26 4.5 838 0.00 0.00 0.00 0.00
05/09/26 10:43:29 AM 34 4.0 6.0 64 48 71.0 78.7 29.914 7.26 4.5 835 0.00 0.00 0.00 0.00
05/09/26 10:44:21 AM 35 2.0 6.0 64 48 71.0 78.7 29.915 7.26 4.5 833 0.00 0.00 0.00 0.00
05/09/26 10:45:34 AM 36 3.0 6.0 64 47 71.1 78.8 29.913 7.26 4.5 831 0.00 0.00 0.00 0.00
05/09/26 10:46:26 AM 38 2.0 6.0 64 49 71.1 78.9 29.912 7.26 4.6 837 0.00 0.00 0.00 0.00
05/09/26 10:47:19 AM 34 2.0 6.0 64 49 71.1 79.0 29.912 7.26 4.7 846 0.00 0.00 0.00 0.00
05/09/26 10:48:26 AM 32 1.0 6.0 64 48 71.1 79.0 29.914 7.26 4.7 851 0.00 0.00 0.00 0.00
05/09/26 10:49:18 AM 36 2.0 6.0 64 47 71.2 79.0 29.914 7.26 4.7 851 0.00 0.00 0.00 0.00
05/09/26 10:50:31 AM 34 2.0 6.0 64 47 71.3 79.0 29.913 7.26 4.7 853 0.00 0.00 0.00 0.00
05/09/26 10:51:23 AM 32 3.0 6.0 64 47 71.2 78.9 29.912 7.26 4.7 846 0.00 0.00 0.00 0.00
05/09/26 10:52:34 AM 32 2.0 6.0 64 46 71.3 78.8 29.911 7.26 4.7 846 0.00 0.00 0.00 0.00
05/09/26 10:53:20 AM 38 1.0 6.0 64 47 71.3 78.8 29.913 7.26 4.8 854 0.00 0.00 0.00 0.00
05/09/26 10:54:33 AM 38 4.0 6.0 64 48 71.4 78.9 29.915 7.26 4.8 854 0.00 0.00 0.00 0.00
05/09/26 10:55:25 AM 34 3.0 6.0 64 48 71.4 79.1 29.911 7.26 4.9 860 0.00 0.00 0.00 0.00
05/09/26 10:56:17 AM 36 4.0 6.0 64 47 71.4 79.2 29.914 7.26 4.9 865 0.00 0.00 0.00 0.00
05/09/26 10:57:31 AM 36 4.0 6.0 64 47 71.5 79.4 29.910 7.26 4.9 874 0.00 0.00 0.00 0.00
05/09/26 10:58:17 AM 31 2.0 6.0 64 46 71.5 79.4 29.914 7.26 4.9 874 0.00 0.00 0.00 0.00
05/09/26 10:59:30 AM 32 1.0 6.0 64 46 71.5 79.4 29.909 7.26 4.9 872 0.00 0.00 0.00 0.00
05/09/26 11:00:22 AM 34 1.0 6.0 64 47 71.5 79.5 29.911 7.26 4.9 872 0.00 0.00 0.00 0.00
05/09/26 11:01:33 AM 38 4.0 6.0 64 46 71.6 79.5 29.910 7.26 5.0 872 0.00 0.00 0.00 0.00
05/09/26 11:02:25 AM 36 4.0 6.0 64 46 71.6 79.4 29.908 7.26 5.0 879 0.00 0.00 0.00 0.00
05/09/26 11:03:17 AM 32 3.0 6.0 64 46 71.6 79.3 29.911 7.26 5.0 877 0.00 0.00 0.00 0.00
05/09/26 11:04:24 AM 34 6.0 6.0 64 47 71.7 79.3 29.908 7.26 5.0 877 0.00 0.00 0.00 0.00
05/09/26 11:05:20 AM 38 3.0 6.0 64 47 71.7 79.3 29.908 7.26 5.0 879 0.00 0.00 0.00 0.00
05/09/26 11:06:30 AM 38 3.0 6.0 64 47 71.7 79.4 29.906 7.26 5.0 881 0.00 0.00 0.00 0.00
05/09/26 11:07:22 AM 36 3.0 7.0 64 47 71.7 79.4 29.907 7.26 5.1 882 0.00 0.00 0.00 0.00
05/09/26 11:08:32 AM 38 4.0 7.0 64 47 71.8 79.6 29.909 7.26 5.1 884 0.00 0.00 0.00 0.00
05/09/26 11:09:21 AM 38 3.0 7.0 64 46 71.8 79.7 29.907 7.26 5.1 886 0.00 0.00 0.00 0.00
05/09/26 11:10:32 AM 31 2.0 7.0 64 46 71.8 79.9 29.907 7.26 5.2 888 0.00 0.00 0.00 0.00
05/09/26 11:11:24 AM 35 4.0 7.0 64 46 71.9 80.0 29.907 7.26 5.2 888 0.00 0.00 0.00 0.00
05/09/26 11:12:37 AM 38 3.0 8.0 64 45 71.9 80.1 29.908 7.26 5.2 889 0.00 0.00 0.00 0.00
05/09/26 11:13:29 AM 31 5.0 8.0 64 44 71.9 80.1 29.908 7.26 5.2 889 0.00 0.00 0.00 0.00
05/09/26 11:14:37 AM 37 1.0 8.0 64 44 71.9 80.1 29.908 7.26 5.2 893 0.00 0.00 0.00 0.00
05/09/26 11:15:29 AM 36 5.0 8.0 64 44 71.9 80.2 29.905 7.26 5.3 900 0.00 0.00 0.00 0.00
05/09/26 11:16:21 AM 34 5.0 8.0 64 44 72.0 80.2 29.907 7.26 5.3 904 0.00 0.00 0.00 0.00
05/09/26 11:17:34 AM 36 6.0 8.0 64 44 72.0 80.3 29.907 7.26 5.3 905 0.00 0.00 0.00 0.00
05/09/26 11:18:23 AM 32 5.0 8.0 64 44 72.1 80.4 29.906 7.26 5.3 905 0.00 0.00 0.00 0.00
05/09/26 11:19:31 AM 32 2.0 8.0 64 43 72.1 80.4 29.905 7.26 5.3 905 0.00 0.00 0.00 0.00
05/09/26 11:20:23 AM 36 1.0 8.0 64 43 72.1 80.5 29.906 7.26 5.3 907 0.00 0.00 0.00 0.00
05/09/26 11:21:36 AM 34 3.0 8.0 64 44 72.1 80.5 29.904 7.26 5.4 907 0.00 0.00 0.00 0.00
05/09/26 11:22:25 AM 32 3.0 8.0 64 45 72.2 80.6 29.905 7.26 5.4 907 0.00 0.00 0.00 0.00
05/09/26 11:23:18 AM 35 3.0 8.0 64 45 72.2 80.9 29.901 7.26 5.4 912 0.00 0.00 0.00 0.00
05/09/26 11:24:31 AM 36 5.0 8.0 64 44 72.2 81.0 29.901 7.26 5.5 912 0.00 0.00 0.00 0.00
05/09/26 11:25:17 AM 35 6.0 8.0 64 44 72.3 81.2 29.904 7.26 5.5 912 0.00 0.00 0.00 0.00
05/09/26 11:26:30 AM 34 5.0 8.0 64 44 72.3 81.4 29.901 7.26 5.5 916 0.00 0.00 0.00 0.00
05/09/26 11:27:23 AM 36 4.0 8.0 64 43 72.3 81.4 29.899 7.26 5.5 916 0.00 0.00 0.00 0.00
05/09/26 11:28:36 AM 36 4.0 8.0 64 42 72.3 81.5 29.903 7.26 5.6 926 0.00 0.00 0.00 0.00
05/09/26 11:29:28 AM 38 3.0 8.0 64 42 72.4 81.6 29.904 7.26 5.6 925 0.00 0.00 0.00 0.00
05/09/26 11:30:17 AM 36 1.0 8.0 64 42 72.4 81.6 29.901 7.26 5.6 914 0.00 0.00 0.00 0.00
05/09/26 11:31:31 AM 32 4.0 8.0 64 42 72.5 81.7 29.903 7.26 5.5 916 0.00 0.00 0.00 0.00
05/09/26 11:32:23 AM 35 2.0 8.0 64 42 72.5 81.8 29.904 7.26 5.6 918 0.00 0.00 0.00 0.00
05/09/26 11:33:36 AM 35 1.0 8.0 64 41 72.5 81.7 29.903 7.26 5.6 919 0.00 0.00 0.00 0.00
05/09/26 11:34:26 AM 38 2.0 8.0 64 41 72.6 81.7 29.903 7.26 5.7 925 0.00 0.00 0.00 0.00
05/09/26 11:35:18 AM 35 2.0 8.0 64 42 72.6 81.8 29.905 7.26 5.6 919 0.00 0.00 0.00 0.00
05/09/26 11:36:25 AM 35 1.0 8.0 64 41 72.7 81.9 29.903 7.26 5.7 921 0.00 0.00 0.00 0.00
05/09/26 11:37:20 AM 32 2.0 8.0 64 41 72.7 81.9 29.903 7.26 5.7 921 0.00 0.00 0.00 0.00
05/09/26 11:38:30 AM 34 2.0 8.0 64 42 72.7 81.8 29.901 7.26 5.8 921 0.00 0.00 0.00 0.00
05/09/26 11:39:23 AM 35 3.0 8.0 64 44 72.7 81.9 29.904 7.26 5.8 930 0.00 0.00 0.00 0.00
05/09/26 11:40:33 AM 31 2.0 8.0 64 42 72.8 82.0 29.903 7.26 5.8 933 0.00 0.00 0.00 0.00
05/09/26 11:41:22 AM 38 3.0 8.0 64 43 72.8 82.2 29.903 7.26 5.8 933 0.00 0.00 0.00 0.00
05/09/26 11:42:35 AM 36 5.0 8.0 64 43 72.8 82.4 29.902 7.26 5.8 933 0.00 0.00 0.00 0.00
05/09/26 11:43:28 AM 38 3.0 8.0 64 42 72.9 82.5 29.901 7.26 5.8 933 0.00 0.00 0.00 0.00
05/09/26 11:44:20 AM 34 5.0 9.0 64 41 72.9 82.6 29.901 7.26 5.8 933 0.00 0.00 0.00 0.00
05/09/26 11:45:33 AM 36 5.0 10.0 64 41 73.0 82.6 29.901 7.26 5.9 937 0.00 0.00 0.00 0.00
05/09/26 11:46:19 AM 38 3.0 10.0 64 41 73.0 82.7 29.900 7.26 5.9 937 0.00 0.00 0.00 0.00
05/09/26 11:47:32 AM 34 4.0 10.0 64 41 73.0 82.7 29.900 7.26 5.9 939 0.00 0.00 0.00 0.00
05/09/26 11:48:25 AM 36 5.0 10.0 64 41 73.0 82.6 29.902 7.26 5.9 940 0.00 0.00 0.00 0.00
05/09/26 11:49:17 AM 35 4.0 10.0 64 41 73.1 82.6 29.902 7.26 5.9 940 0.00 0.00 0.00 0.00
05/09/26 11:50:30 AM 39 4.0 10.0 64 40 73.1 82.6 29.900 7.26 5.9 949 0.00 0.00 0.00 0.00
05/09/26 11:51:22 AM 35 3.0 10.0 64 40 73.2 82.6 29.901 7.26 5.9 944 0.00 0.00 0.00 0.00
05/09/26 11:52:30 AM 36 2.0 10.0 64 41 73.3 82.7 29.901 7.26 5.9 946 0.00 0.00 0.00 0.00
05/09/26 11:53:22 AM 38 6.0 10.0 64 40 73.2 82.7 29.899 7.26 6.0 946 0.00 0.00 0.00 0.00
05/09/26 11:54:32 AM 36 5.0 10.0 64 40 73.3 82.8 29.900 7.26 6.0 947 0.00 0.00 0.00 0.00
05/09/26 11:55:27 AM 36 4.0 10.0 64 41 73.3 82.7 29.901 7.26 6.0 946 0.00 0.00 0.00 0.00
05/09/26 11:56:19 AM 36 4.0 10.0 64 41 73.3 82.8 29.898 7.26 6.0 953 0.00 0.00 0.00 0.00
05/09/26 11:57:27 AM 34 2.0 10.0 64 41 73.3 82.8 29.900 7.26 6.0 953 0.00 0.00 0.00 0.00

University Police wind advisory reference

For campus closure information please call the campus Emergency Hotline at (909) 537-5999

© All rights reserved. Unauthorized duplication or distribution is prohibited

Never base important decisions on this or any weather information obtained from the Internet

California State University, San Bernardino
5500 University Parkway, San Bernardino, CA. 92407
Phone: (909) 537-5108, Email: Weather Webmaster
Last Updated: